Time,TemperatureF,DewpointF,PressureIn,WindDirection,WindDirectionDegrees,WindSpeedMPH,WindSpeedGustMPH,Humidity,HourlyPrecipIn,Conditions,Clouds,dailyrainin,SolarRadiationWatts/m^2,SoftwareType,DateUTC
2013-01-09 00:01:00,38.9,32.6,29.19,South,171,4.0,4.0,78,0.00,,BKN080,0.00,0.00,VWS V14.01,2013-01-09 06:01:00,
2013-01-09 00:02:00,38.9,32.6,29.19,SW,235,3.0,7.0,78,0.00,,BKN080,0.00,0.00,VWS V14.01,2013-01-09 06:02:00,
2013-01-09 00:04:00,38.9,32.6,29.18,SSW,209,3.0,4.0,78,0.00,,BKN080,0.00,0.00,VWS V14.01,2013-01-09 06:04:00,
2013-01-09 00:07:00,38.9,32.6,29.18,South,184,0.0,4.0,78,0.00,,BKN080,0.00,0.00,VWS V14.01,2013-01-09 06:07:00,
2013-01-09 00:08:00,38.8,32.5,29.18,ESE,109,0.0,2.0,78,0.00,,BKN080,0.00,0.00,VWS V14.01,2013-01-09 06:08:00,
2013-01-09 00:09:00,38.8,32.5,29.18,SSE,148,1.0,3.0,78,0.00,,BKN080,0.00,0.00,VWS V14.01,2013-01-09 06:09:00,
2013-01-09 00:10:00,38.8,32.5,29.18,SW,235,2.0,6.0,78,0.00,,BKN080,0.00,0.00,VWS V14.01,2013-01-09 06:10:00,
2013-01-09 00:14:00,38.8,32.9,29.18,East,101,0.0,7.0,79,0.00,,BKN080,0.00,0.00,VWS V14.01,2013-01-09 06:14:00,
2013-01-09 00:15:00,38.8,32.9,29.18,SE,137,0.0,0.0,79,0.00,,BKN080,0.00,0.00,VWS V14.01,2013-01-09 06:15:00,
2013-01-09 00:17:00,38.8,32.9,29.18,ESE,108,0.0,1.0,79,0.00,,BKN080,0.00,0.00,VWS V14.01,2013-01-09 06:17:00,
2013-01-09 00:18:00,38.7,32.8,29.18,SW,223,0.0,5.0,79,0.00,,BKN080,0.00,0.00,VWS V14.01,2013-01-09 06:18:00,
2013-01-09 00:20:00,38.7,32.8,29.19,SSW,196,1.0,4.0,79,0.00,,BKN080,0.00,0.00,VWS V14.01,2013-01-09 06:20:00,
2013-01-09 00:21:00,38.7,32.8,29.19,SSW,206,3.0,10.0,79,0.00,,BKN080,0.00,0.00,VWS V14.01,2013-01-09 06:21:00,
2013-01-09 00:23:00,38.8,32.9,29.18,SSE,165,2.0,5.0,79,0.00,,BKN080,0.00,0.00,VWS V14.01,2013-01-09 06:23:00,
2013-01-09 00:26:00,38.8,32.9,29.19,SSW,213,2.0,3.0,79,0.00,,BKN080,0.00,0.00,VWS V14.01,2013-01-09 06:26:00,
2013-01-09 00:27:00,38.8,32.9,29.18,SSE,161,7.0,7.0,79,0.00,,BKN080,0.00,0.00,VWS V14.01,2013-01-09 06:27:00,
2013-01-09 00:30:00,38.9,33.0,29.19,WSW,244,1.0,4.0,79,0.00,,BKN080,0.00,0.00,VWS V14.01,2013-01-09 06:30:00,
2013-01-09 00:32:00,38.9,33.0,29.19,SSE,148,1.0,1.0,79,0.00,,BKN080,0.00,0.00,VWS V14.01,2013-01-09 06:32:00,
2013-01-09 00:36:00,38.8,32.9,29.19,West,261,2.0,8.0,79,0.00,,BKN080,0.00,0.00,VWS V14.01,2013-01-09 06:36:00,
2013-01-09 00:37:00,38.8,32.9,29.19,South,178,5.0,5.0,79,0.00,,BKN080,0.00,0.00,VWS V14.01,2013-01-09 06:37:00,
2013-01-09 00:38:00,38.8,32.9,29.19,SW,230,2.0,5.0,79,0.00,,BKN080,0.00,0.00,VWS V14.01,2013-01-09 06:38:00,
2013-01-09 00:41:00,38.8,32.9,29.19,SW,234,0.0,4.0,79,0.00,,BKN080,0.00,0.00,VWS V14.01,2013-01-09 06:41:00,
2013-01-09 00:44:00,38.8,32.9,29.19,SW,234,2.0,4.0,79,0.00,,BKN080,0.00,0.00,VWS V14.01,2013-01-09 06:44:00,
2013-01-09 00:45:00,38.8,32.9,29.19,SW,234,0.0,2.0,79,0.00,,BKN080,0.00,0.00,VWS V14.01,2013-01-09 06:45:00,
2013-01-09 00:50:00,38.7,33.1,29.20,WSW,258,0.0,7.0,80,0.00,,BKN080,0.00,0.00,VWS V14.01,2013-01-09 06:50:00,
2013-01-09 00:51:00,38.7,33.1,29.19,South,184,3.0,5.0,80,0.00,,BKN080,0.00,0.00,VWS V14.01,2013-01-09 06:51:00,
2013-01-09 00:55:00,38.7,33.1,29.19,SW,225,0.0,3.0,80,0.00,,BKN080,0.00,0.00,VWS V14.01,2013-01-09 06:55:00,
2013-01-09 00:56:00,38.7,33.1,29.19,SW,225,0.0,2.0,80,0.00,,BKN080,0.00,0.00,VWS V14.01,2013-01-09 06:56:00,
2013-01-09 00:59:00,38.7,33.1,29.20,WSW,254,1.0,4.0,80,0.00,,BKN080,0.00,0.00,VWS V14.01,2013-01-09 06:59:00,
2013-01-09 01:01:00,38.8,33.2,29.20,SSW,194,2.0,5.0,80,0.00,,SCT120,0.00,0.00,VWS V14.01,2013-01-09 07:01:00,
2013-01-09 01:02:00,38.8,33.2,29.19,SSW,194,0.0,3.0,80,0.00,,SCT120,0.00,0.00,VWS V14.01,2013-01-09 07:02:00,
2013-01-09 01:05:00,38.9,33.3,29.20,SW,232,3.0,3.0,80,0.00,,SCT120,0.00,0.00,VWS V14.01,2013-01-09 07:05:00,
2013-01-09 01:08:00,38.9,33.3,29.20,South,182,1.0,2.0,80,0.00,,SCT120,0.00,0.00,VWS V14.01,2013-01-09 07:08:00,
2013-01-09 01:10:00,38.8,33.2,29.20,SW,236,4.0,5.0,80,0.00,,SCT120,0.00,0.00,VWS V14.01,2013-01-09 07:10:00,
2013-01-09 01:11:00,38.9,33.3,29.20,ESE,113,0.0,4.0,80,0.00,,SCT120,0.00,0.00,VWS V14.01,2013-01-09 07:11:00,
2013-01-09 01:13:00,38.9,33.3,29.20,South,176,5.0,5.0,80,0.00,,SCT120,0.00,0.00,VWS V14.01,2013-01-09 07:13:00,
2013-01-09 01:16:00,38.9,33.3,29.20,West,269,6.0,6.0,80,0.00,,SCT120,0.00,0.00,VWS V14.01,2013-01-09 07:16:00,
2013-01-09 01:18:00,39.0,33.4,29.20,South,171,0.0,3.0,80,0.00,,SCT120,0.00,0.00,VWS V14.01,2013-01-09 07:18:00,
2013-01-09 01:21:00,39.1,33.5,29.20,SW,234,0.0,4.0,80,0.00,,SCT120,0.00,0.00,VWS V14.01,2013-01-09 07:21:00,
2013-01-09 01:24:00,39.1,33.5,29.21,SW,217,0.0,3.0,80,0.00,,SCT120,0.00,0.00,VWS V14.01,2013-01-09 07:24:00,
2013-01-09 01:25:00,39.1,33.5,29.21,South,190,1.0,7.0,80,0.00,,SCT120,0.00,0.00,VWS V14.01,2013-01-09 07:25:00,
2013-01-09 01:27:00,39.2,33.6,29.20,NW,314,0.0,3.0,80,0.00,,SCT120,0.00,0.00,VWS V14.01,2013-01-09 07:27:00,
2013-01-09 01:28:00,39.2,33.6,29.20,South,190,1.0,2.0,80,0.00,,SCT120,0.00,0.00,VWS V14.01,2013-01-09 07:28:00,
2013-01-09 01:30:00,39.2,33.6,29.21,WSW,257,3.0,3.0,80,0.00,,SCT120,0.00,0.00,VWS V14.01,2013-01-09 07:30:00,
2013-01-09 01:32:00,39.2,33.6,29.21,SSW,200,0.0,2.0,80,0.00,,SCT120,0.00,0.00,VWS V14.01,2013-01-09 07:32:00,
2013-01-09 01:36:00,39.2,33.6,29.21,SSE,156,5.0,5.0,80,0.00,,SCT120,0.00,0.00,VWS V14.01,2013-01-09 07:36:00,
2013-01-09 01:37:00,39.2,33.6,29.21,SW,229,0.0,5.0,80,0.00,,SCT120,0.00,0.00,VWS V14.01,2013-01-09 07:37:00,
2013-01-09 01:39:00,39.3,33.7,29.21,WSW,239,0.0,8.0,80,0.00,,SCT120,0.00,0.00,VWS V14.01,2013-01-09 07:39:00,
2013-01-09 01:42:00,39.3,33.7,29.22,South,190,0.0,3.0,80,0.00,,SCT120,0.00,0.00,VWS V14.01,2013-01-09 07:42:00,
2013-01-09 01:46:00,39.2,33.6,29.22,SW,219,2.0,3.0,80,0.00,,SCT120,0.00,0.00,VWS V14.01,2013-01-09 07:46:00,
2013-01-09 01:47:00,39.2,33.6,29.22,West,263,0.0,6.0,80,0.00,,SCT120,0.00,0.00,VWS V14.01,2013-01-09 07:47:00,
2013-01-09 01:48:00,39.2,33.6,29.22,SW,222,2.0,4.0,80,0.00,,SCT120,0.00,0.00,VWS V14.01,2013-01-09 07:48:00,
2013-01-09 01:50:00,39.2,33.6,29.22,WSW,252,0.0,5.0,80,0.00,,SCT120,0.00,0.00,VWS V14.01,2013-01-09 07:50:00,
2013-01-09 01:52:00,39.1,33.5,29.22,WSW,246,1.0,4.0,80,0.00,,SCT120,0.00,0.00,VWS V14.01,2013-01-09 07:52:00,
2013-01-09 01:55:00,39.1,33.5,29.22,ESE,102,1.0,5.0,80,0.00,,SCT120,0.00,0.00,VWS V14.01,2013-01-09 07:55:00,
2013-01-09 01:57:00,39.1,33.5,29.22,SSW,204,2.0,4.0,80,0.00,,SCT120,0.00,0.00,VWS V14.01,2013-01-09 07:57:00,
2013-01-09 01:58:00,39.1,33.5,29.22,SW,221,1.0,7.0,80,0.00,,SCT120,0.00,0.00,VWS V14.01,2013-01-09 07:58:00,
2013-01-09 02:00:00,39.0,33.4,29.22,West,268,2.0,5.0,80,0.00,,SCT120,0.00,0.00,VWS V14.01,2013-01-09 08:00:00,
2013-01-09 02:01:00,39.0,33.4,29.22,SSW,198,1.0,2.0,80,0.00,,FEW070,0.00,0.00,VWS V14.01,2013-01-09 08:01:00,
2013-01-09 02:03:00,39.0,33.4,29.22,West,268,4.0,5.0,80,0.00,,FEW070,0.00,0.00,VWS V14.01,2013-01-09 08:03:00,
2013-01-09 02:05:00,39.0,33.4,29.22,SW,221,4.0,4.0,80,0.00,,FEW070,0.00,0.00,VWS V14.01,2013-01-09 08:05:00,
2013-01-09 02:06:00,39.0,33.4,29.22,SW,221,0.0,4.0,80,0.00,,FEW070,0.00,0.00,VWS V14.01,2013-01-09 08:06:00,
2013-01-09 02:08:00,38.9,33.3,29.22,SW,219,0.0,6.0,80,0.00,,FEW070,0.00,0.00,VWS V14.01,2013-01-09 08:08:00,
2013-01-09 02:09:00,38.9,33.3,29.22,SW,231,2.0,3.0,80,0.00,,FEW070,0.00,0.00,VWS V14.01,2013-01-09 08:09:00,
2013-01-09 02:13:00,38.9,33.3,29.23,SSW,208,2.0,2.0,80,0.00,,FEW070,0.00,0.00,VWS V14.01,2013-01-09 08:13:00,
2013-01-09 02:15:00,38.9,33.3,29.23,SSW,207,1.0,1.0,80,0.00,,FEW070,0.00,0.00,VWS V14.01,2013-01-09 08:15:00,
2013-01-09 02:16:00,38.8,33.2,29.23,SSW,207,0.0,1.0,80,0.00,,FEW070,0.00,0.00,VWS V14.01,2013-01-09 08:16:00,
2013-01-09 02:21:00,38.8,33.2,29.23,NW,326,0.0,2.0,80,0.00,,FEW070,0.00,0.00,VWS V14.01,2013-01-09 08:21:00,
2013-01-09 02:23:00,38.8,33.2,29.23,SW,225,3.0,3.0,80,0.00,,FEW070,0.00,0.00,VWS V14.01,2013-01-09 08:23:00,
2013-01-09 02:25:00,38.8,33.2,29.23,SSW,213,0.0,4.0,80,0.00,,FEW070,0.00,0.00,VWS V14.01,2013-01-09 08:25:00,
2013-01-09 02:28:00,38.8,32.9,29.23,South,187,1.0,3.0,79,0.00,,FEW070,0.00,0.00,VWS V14.01,2013-01-09 08:28:00,
2013-01-09 02:30:00,38.9,33.0,29.23,WSW,254,0.0,6.0,79,0.00,,FEW070,0.00,0.00,VWS V14.01,2013-01-09 08:30:00,
2013-01-09 02:32:00,38.9,33.0,29.23,SW,229,0.0,1.0,79,0.00,,FEW070,0.00,0.00,VWS V14.01,2013-01-09 08:32:00,
2013-01-09 02:33:00,38.9,33.0,29.23,SW,229,1.0,1.0,79,0.00,,FEW070,0.00,0.00,VWS V14.01,2013-01-09 08:33:00,
2013-01-09 02:37:00,38.9,33.0,29.23,West,277,2.0,2.0,79,0.00,,FEW070,0.00,0.00,VWS V14.01,2013-01-09 08:37:00,
2013-01-09 02:40:00,39.0,33.0,29.23,SW,221,3.0,4.0,79,0.00,,FEW070,0.00,0.00,VWS V14.01,2013-01-09 08:40:00,
2013-01-09 02:41:00,39.0,32.7,29.23,SSE,157,1.0,3.0,78,0.00,,FEW070,0.00,0.00,VWS V14.01,2013-01-09 08:41:00,
2013-01-09 02:42:00,39.1,32.8,29.23,South,188,0.0,3.0,78,0.00,,FEW070,0.00,0.00,VWS V14.01,2013-01-09 08:42:00,
2013-01-09 02:45:00,39.1,32.8,29.23,WSW,244,3.0,5.0,78,0.00,,FEW070,0.00,0.00,VWS V14.01,2013-01-09 08:45:00,
2013-01-09 02:47:00,39.2,32.9,29.24,SW,216,2.0,5.0,78,0.00,,FEW070,0.00,0.00,VWS V14.01,2013-01-09 08:47:00,
2013-01-09 02:50:00,39.5,32.9,29.24,WSW,237,4.0,6.0,77,0.00,,FEW070,0.00,0.00,VWS V14.01,2013-01-09 08:50:00,
2013-01-09 02:52:00,39.6,32.7,29.24,WSW,256,1.0,3.0,76,0.00,,FEW070,0.00,0.00,VWS V14.01,2013-01-09 08:52:00,
2013-01-09 02:54:00,39.7,32.8,29.24,West,259,0.0,2.0,76,0.00,,FEW070,0.00,0.00,VWS V14.01,2013-01-09 08:54:00,
2013-01-09 02:55:00,39.7,32.8,29.24,NW,309,1.0,5.0,76,0.00,,FEW070,0.00,0.00,VWS V14.01,2013-01-09 08:55:00,
2013-01-09 03:01:00,40.1,32.8,29.24,West,273,3.0,6.0,75,0.00,,SCT095,0.00,0.00,VWS V14.01,2013-01-09 09:01:00,
2013-01-09 03:02:00,40.2,32.9,29.24,WSW,248,2.0,4.0,75,0.00,,SCT095,0.00,0.00,VWS V14.01,2013-01-09 09:02:00,
2013-01-09 03:03:00,40.2,32.9,29.24,NNW,333,2.0,2.0,75,0.00,,SCT095,0.00,0.00,VWS V14.01,2013-01-09 09:03:00,
2013-01-09 03:04:00,40.3,32.7,29.24,NNE,15,0.0,7.0,74,0.00,,SCT095,0.00,0.00,VWS V14.01,2013-01-09 09:04:00,
2013-01-09 03:09:00,40.3,32.7,29.24,WNW,298,0.0,4.0,74,0.00,,SCT095,0.00,0.00,VWS V14.01,2013-01-09 09:09:00,
2013-01-09 03:10:00,40.3,32.7,29.25,West,267,0.0,4.0,74,0.00,,SCT095,0.00,0.00,VWS V14.01,2013-01-09 09:10:00,
2013-01-09 03:11:00,40.3,32.7,29.25,SW,225,4.0,5.0,74,0.00,,SCT095,0.00,0.00,VWS V14.01,2013-01-09 09:11:00,
2013-01-09 03:13:00,40.3,32.7,29.25,WSW,258,1.0,5.0,74,0.00,,SCT095,0.00,0.00,VWS V14.01,2013-01-09 09:13:00,
2013-01-09 03:15:00,40.3,32.7,29.25,West,266,3.0,7.0,74,0.00,,SCT095,0.00,0.00,VWS V14.01,2013-01-09 09:15:00,
2013-01-09 03:16:00,40.4,32.4,29.25,SW,216,5.0,6.0,73,0.00,,SCT095,0.00,0.00,VWS V14.01,2013-01-09 09:16:00,
2013-01-09 03:17:00,40.4,32.4,29.25,WSW,240,4.0,6.0,73,0.00,,SCT095,0.00,0.00,VWS V14.01,2013-01-09 09:17:00,
2013-01-09 03:20:00,40.5,32.5,29.25,WSW,246,0.0,1.0,73,0.00,,SCT095,0.00,0.00,VWS V14.01,2013-01-09 09:20:00,
2013-01-09 03:23:00,40.5,32.5,29.25,West,275,1.0,2.0,73,0.00,,SCT095,0.00,0.00,VWS V14.01,2013-01-09 09:23:00,
2013-01-09 03:24:00,40.4,32.4,29.25,WSW,250,4.0,4.0,73,0.00,,SCT095,0.00,0.00,VWS V14.01,2013-01-09 09:24:00,
2013-01-09 03:26:00,40.4,32.4,29.25,West,266,2.0,5.0,73,0.00,,SCT095,0.00,0.00,VWS V14.01,2013-01-09 09:26:00,
2013-01-09 03:29:00,40.4,32.4,29.25,West,267,0.0,8.0,73,0.00,,SCT095,0.00,0.00,VWS V14.01,2013-01-09 09:29:00,
2013-01-09 03:30:00,40.4,32.4,29.25,SW,232,0.0,3.0,73,0.00,,SCT095,0.00,0.00,VWS V14.01,2013-01-09 09:30:00,
2013-01-09 03:32:00,40.4,32.4,29.25,SW,223,0.0,6.0,73,0.00,,SCT095,0.00,0.00,VWS V14.01,2013-01-09 09:32:00,
2013-01-09 03:35:00,40.4,32.4,29.26,WSW,241,4.0,5.0,73,0.00,,SCT095,0.00,0.00,VWS V14.01,2013-01-09 09:35:00,
2013-01-09 03:38:00,40.4,32.1,29.26,WSW,247,3.0,5.0,72,0.00,,SCT095,0.00,0.00,VWS V14.01,2013-01-09 09:38:00,
2013-01-09 03:39:00,40.5,32.2,29.26,West,259,1.0,11.0,72,0.00,,SCT095,0.00,0.00,VWS V14.01,2013-01-09 09:39:00,
2013-01-09 03:43:00,40.5,32.2,29.26,SSW,209,8.0,10.0,72,0.00,,SCT095,0.00,0.00,VWS V14.01,2013-01-09 09:43:00,
2013-01-09 03:44:00,40.5,32.2,29.26,WNW,287,2.0,8.0,72,0.00,,SCT095,0.00,0.00,VWS V14.01,2013-01-09 09:44:00,
2013-01-09 03:46:00,40.5,32.2,29.26,WNW,288,0.0,2.0,72,0.00,,SCT095,0.00,0.00,VWS V14.01,2013-01-09 09:46:00,
2013-01-09 03:49:00,40.3,32.0,29.26,WSW,241,4.0,7.0,72,0.00,,SCT095,0.00,0.00,VWS V14.01,2013-01-09 09:49:00,
2013-01-09 03:50:00,40.3,32.0,29.26,West,277,3.0,9.0,72,0.00,,SCT095,0.00,0.00,VWS V14.01,2013-01-09 09:50:00,
2013-01-09 03:51:00,40.2,31.9,29.26,WSW,257,2.0,3.0,72,0.00,,SCT095,0.00,0.00,VWS V14.01,2013-01-09 09:51:00,
2013-01-09 03:55:00,40.1,33.2,29.26,NW,313,2.0,6.0,76,0.00,,SCT095,0.00,0.00,VWS V14.01,2013-01-09 09:55:00,
2013-01-09 03:56:00,40.0,31.7,29.26,South,189,0.0,3.0,72,0.00,,SCT095,0.00,0.00,VWS V14.01,2013-01-09 09:56:00,
2013-01-09 04:00:00,39.8,31.9,29.27,SW,223,4.0,6.0,73,0.00,,SCT095,0.00,0.00,VWS V14.01,2013-01-09 10:00:00,
2013-01-09 04:01:00,39.8,31.9,29.27,SW,227,5.0,10.0,73,0.00,,CLR,0.00,0.00,VWS V14.01,2013-01-09 10:01:00,
2013-01-09 04:03:00,39.7,31.8,29.26,West,279,0.0,4.0,73,0.00,,CLR,0.00,0.00,VWS V14.01,2013-01-09 10:03:00,
2013-01-09 04:06:00,39.6,31.7,29.27,SSW,209,0.0,6.0,73,0.00,,CLR,0.00,0.00,VWS V14.01,2013-01-09 10:06:00,
2013-01-09 04:07:00,39.5,31.6,29.27,NW,319,1.0,2.0,73,0.00,,CLR,0.00,0.00,VWS V14.01,2013-01-09 10:07:00,
2013-01-09 04:09:00,39.4,31.5,29.27,WSW,257,3.0,5.0,73,0.00,,CLR,0.00,0.00,VWS V14.01,2013-01-09 10:09:00,
2013-01-09 04:12:00,39.2,31.3,29.27,SW,227,2.0,7.0,73,0.00,,CLR,0.00,0.00,VWS V14.01,2013-01-09 10:12:00,
2013-01-09 04:14:00,39.0,31.4,29.27,SW,216,8.0,8.0,74,0.00,,CLR,0.00,0.00,VWS V14.01,2013-01-09 10:14:00,
2013-01-09 04:15:00,39.0,31.4,29.26,SSW,209,5.0,9.0,74,0.00,,CLR,0.00,0.00,VWS V14.01,2013-01-09 10:15:00,
2013-01-09 04:17:00,39.0,31.4,29.27,SW,235,0.0,7.0,74,0.00,,CLR,0.00,0.00,VWS V14.01,2013-01-09 10:17:00,
2013-01-09 04:18:00,38.9,31.3,29.27,WNW,303,3.0,4.0,74,0.00,,CLR,0.00,0.00,VWS V14.01,2013-01-09 10:18:00,
2013-01-09 04:20:00,38.9,31.3,29.27,SW,215,4.0,6.0,74,0.00,,CLR,0.00,0.00,VWS V14.01,2013-01-09 10:20:00,
2013-01-09 04:25:00,38.6,31.0,29.27,WSW,257,2.0,7.0,74,0.00,,CLR,0.00,0.00,VWS V14.01,2013-01-09 10:25:00,
2013-01-09 04:29:00,38.4,31.2,29.28,WNW,300,0.0,4.0,75,0.00,,CLR,0.00,0.00,VWS V14.01,2013-01-09 10:29:00,
2013-01-09 04:31:00,38.3,31.1,29.27,West,277,3.0,4.0,75,0.00,,CLR,0.00,0.00,VWS V14.01,2013-01-09 10:31:00,
2013-01-09 04:35:00,38.1,30.9,29.27,WNW,289,1.0,7.0,75,0.00,,CLR,0.00,0.00,VWS V14.01,2013-01-09 10:35:00,
2013-01-09 04:37:00,38.1,30.9,29.28,NW,319,1.0,3.0,75,0.00,,CLR,0.00,0.00,VWS V14.01,2013-01-09 10:37:00,
2013-01-09 04:39:00,38.0,30.8,29.27,WNW,284,0.0,4.0,75,0.00,,CLR,0.00,0.00,VWS V14.01,2013-01-09 10:39:00,
2013-01-09 04:40:00,37.9,31.0,29.27,SW,217,7.0,7.0,76,0.00,,CLR,0.00,0.00,VWS V14.01,2013-01-09 10:40:00,
2013-01-09 04:41:00,37.9,31.0,29.27,WNW,288,1.0,7.0,76,0.00,,CLR,0.00,0.00,VWS V14.01,2013-01-09 10:41:00,
2013-01-09 04:42:00,37.9,31.0,29.27,NW,309,0.0,3.0,76,0.00,,CLR,0.00,0.00,VWS V14.01,2013-01-09 10:42:00,
2013-01-09 04:45:00,37.7,30.8,29.27,NW,304,0.0,1.0,76,0.00,,CLR,0.00,0.00,VWS V14.01,2013-01-09 10:45:00,
2013-01-09 04:47:00,37.6,30.7,29.27,NW,306,1.0,3.0,76,0.00,,CLR,0.00,0.00,VWS V14.01,2013-01-09 10:47:00,
2013-01-09 04:48:00,37.6,30.7,29.27,WNW,290,6.0,6.0,76,0.00,,CLR,0.00,0.00,VWS V14.01,2013-01-09 10:48:00,
2013-01-09 04:50:00,37.5,30.6,29.28,West,267,0.0,3.0,76,0.00,,CLR,0.00,0.00,VWS V14.01,2013-01-09 10:50:00,
2013-01-09 04:52:00,37.5,30.6,29.28,SW,227,0.0,5.0,76,0.00,,CLR,0.00,0.00,VWS V14.01,2013-01-09 10:52:00,
2013-01-09 04:53:00,37.5,30.6,29.27,SW,227,0.0,1.0,76,0.00,,CLR,0.00,0.00,VWS V14.01,2013-01-09 10:53:00,
2013-01-09 04:56:00,37.3,30.8,29.28,SW,224,0.0,1.0,77,0.00,,CLR,0.00,0.00,VWS V14.01,2013-01-09 10:56:00,
2013-01-09 04:57:00,37.3,30.8,29.28,WSW,238,2.0,4.0,77,0.00,,CLR,0.00,0.00,VWS V14.01,2013-01-09 10:57:00,
2013-01-09 05:01:00,37.3,30.8,29.28,South,184,0.0,1.0,77,0.00,,CLR,0.00,0.00,VWS V14.01,2013-01-09 11:01:00,
2013-01-09 05:02:00,37.2,30.7,29.28,NNW,337,1.0,4.0,77,0.00,,CLR,0.00,0.00,VWS V14.01,2013-01-09 11:02:00,
2013-01-09 05:05:00,37.2,30.7,29.28,NW,304,0.0,4.0,77,0.00,,CLR,0.00,0.00,VWS V14.01,2013-01-09 11:05:00,
2013-01-09 05:07:00,37.2,30.7,29.28,NW,309,0.0,3.0,77,0.00,,CLR,0.00,0.00,VWS V14.01,2013-01-09 11:07:00,
2013-01-09 05:09:00,37.2,30.7,29.29,NW,309,0.0,3.0,77,0.00,,CLR,0.00,0.00,VWS V14.01,2013-01-09 11:09:00,
2013-01-09 05:10:00,37.2,30.7,29.28,NW,309,5.0,5.0,77,0.00,,CLR,0.00,0.00,VWS V14.01,2013-01-09 11:10:00,
2013-01-09 05:15:00,37.1,30.6,29.29,WNW,290,1.0,4.0,77,0.00,,CLR,0.00,0.00,VWS V14.01,2013-01-09 11:15:00,
2013-01-09 05:16:00,37.1,30.6,29.29,WNW,293,0.0,2.0,77,0.00,,CLR,0.00,0.00,VWS V14.01,2013-01-09 11:16:00,
2013-01-09 05:17:00,37.1,30.6,29.29,WNW,293,2.0,2.0,77,0.00,,CLR,0.00,0.00,VWS V14.01,2013-01-09 11:17:00,
2013-01-09 05:18:00,37.1,30.6,29.29,WNW,302,0.0,5.0,77,0.00,,CLR,0.00,0.00,VWS V14.01,2013-01-09 11:18:00,
2013-01-09 05:21:00,37.1,30.9,29.29,WSW,242,2.0,7.0,78,0.00,,CLR,0.00,0.00,VWS V14.01,2013-01-09 11:21:00,
2013-01-09 05:24:00,37.0,30.8,29.29,NW,306,2.0,3.0,78,0.00,,CLR,0.00,0.00,VWS V14.01,2013-01-09 11:24:00,
2013-01-09 05:27:00,37.0,30.8,29.29,West,275,0.0,7.0,78,0.00,,CLR,0.00,0.00,VWS V14.01,2013-01-09 11:27:00,
2013-01-09 05:28:00,37.0,30.8,29.30,NW,320,1.0,1.0,78,0.00,,CLR,0.00,0.00,VWS V14.01,2013-01-09 11:28:00,
2013-01-09 05:29:00,37.0,30.8,29.30,WNW,302,1.0,2.0,78,0.00,,CLR,0.00,0.00,VWS V14.01,2013-01-09 11:29:00,
2013-01-09 05:34:00,36.8,30.6,29.31,NW,311,0.0,5.0,78,0.00,,CLR,0.00,0.00,VWS V14.01,2013-01-09 11:34:00,
2013-01-09 05:35:00,36.7,30.5,29.30,NW,306,2.0,6.0,78,0.00,,CLR,0.00,0.00,VWS V14.01,2013-01-09 11:35:00,
2013-01-09 05:40:00,36.6,30.7,29.31,WNW,296,1.0,5.0,79,0.00,,CLR,0.00,0.00,VWS V14.01,2013-01-09 11:40:00,
2013-01-09 05:43:00,36.5,30.6,29.31,WSW,250,3.0,4.0,79,0.00,,CLR,0.00,0.00,VWS V14.01,2013-01-09 11:43:00,
2013-01-09 05:45:00,36.5,30.6,29.31,NW,308,2.0,4.0,79,0.00,,CLR,0.00,0.00,VWS V14.01,2013-01-09 11:45:00,
2013-01-09 05:46:00,36.5,30.6,29.31,SW,230,0.0,3.0,79,0.00,,CLR,0.00,0.00,VWS V14.01,2013-01-09 11:46:00,
2013-01-09 05:52:00,36.5,30.6,29.31,WSW,256,1.0,4.0,79,0.00,,CLR,0.00,0.00,VWS V14.01,2013-01-09 11:52:00,
2013-01-09 05:55:00,36.6,30.7,29.31,WSW,244,2.0,4.0,79,0.00,,CLR,0.00,0.00,VWS V14.01,2013-01-09 11:55:00,
2013-01-09 05:57:00,36.6,30.7,29.31,WSW,244,0.0,2.0,79,0.00,,CLR,0.00,0.00,VWS V14.01,2013-01-09 11:57:00,
2013-01-09 06:00:00,36.5,30.6,29.31,SSW,210,0.0,2.0,79,0.00,,CLR,0.00,0.00,VWS V14.01,2013-01-09 12:00:00,
2013-01-09 06:03:00,36.5,30.6,29.31,NW,304,4.0,4.0,79,0.00,,CLR,0.00,0.00,VWS V14.01,2013-01-09 12:03:00,
2013-01-09 06:05:00,36.5,30.6,29.31,NW,313,0.0,2.0,79,0.00,,CLR,0.00,0.00,VWS V14.01,2013-01-09 12:05:00,
2013-01-09 06:10:00,36.4,30.5,29.32,West,261,2.0,4.0,79,0.00,,CLR,0.00,0.00,VWS V14.01,2013-01-09 12:10:00,
2013-01-09 06:11:00,36.4,30.5,29.32,WNW,303,5.0,5.0,79,0.00,,CLR,0.00,0.00,VWS V14.01,2013-01-09 12:11:00,
2013-01-09 06:12:00,36.4,30.8,29.32,WNW,297,1.0,6.0,80,0.00,,CLR,0.00,0.00,VWS V14.01,2013-01-09 12:12:00,
2013-01-09 06:15:00,36.4,30.5,29.32,NW,313,3.0,7.0,79,0.00,,CLR,0.00,0.00,VWS V14.01,2013-01-09 12:15:00,
2013-01-09 06:20:00,36.3,30.4,29.32,WNW,302,1.0,2.0,79,0.00,,CLR,0.00,0.00,VWS V14.01,2013-01-09 12:20:00,
2013-01-09 06:21:00,36.3,30.7,29.32,WSW,254,0.0,3.0,80,0.00,,CLR,0.00,0.00,VWS V14.01,2013-01-09 12:21:00,
2013-01-09 06:23:00,36.2,30.3,29.32,WNW,292,1.0,1.0,79,0.00,,CLR,0.00,0.00,VWS V14.01,2013-01-09 12:23:00,
2013-01-09 06:28:00,36.0,30.4,29.33,West,269,3.0,3.0,80,0.00,,CLR,0.00,0.00,VWS V14.01,2013-01-09 12:28:00,
2013-01-09 06:31:00,36.0,30.4,29.33,WNW,300,0.0,3.0,80,0.00,,CLR,0.00,0.00,VWS V14.01,2013-01-09 12:31:00,
2013-01-09 06:32:00,35.9,30.3,29.33,SW,224,0.0,3.0,80,0.00,,CLR,0.00,0.00,VWS V14.01,2013-01-09 12:32:00,
2013-01-09 06:33:00,35.9,30.3,29.33,West,273,1.0,2.0,80,0.00,,CLR,0.00,0.00,VWS V14.01,2013-01-09 12:33:00,
2013-01-09 06:36:00,35.8,30.2,29.33,WNW,287,0.0,5.0,80,0.00,,CLR,0.00,0.00,VWS V14.01,2013-01-09 12:36:00,
2013-01-09 06:37:00,35.7,30.1,29.33,WNW,298,0.0,2.0,80,0.00,,CLR,0.00,0.00,VWS V14.01,2013-01-09 12:37:00,
2013-01-09 06:38:00,35.7,30.1,29.33,SSW,196,0.0,1.0,80,0.00,,CLR,0.00,0.00,VWS V14.01,2013-01-09 12:38:00,
2013-01-09 06:44:00,35.5,30.3,29.34,WNW,292,2.0,3.0,81,0.00,,CLR,0.00,0.00,VWS V14.01,2013-01-09 12:44:00,
2013-01-09 06:46:00,35.5,30.3,29.34,WNW,292,0.0,0.0,81,0.00,,CLR,0.00,0.00,VWS V14.01,2013-01-09 12:46:00,
2013-01-09 06:47:00,35.5,30.3,29.34,WNW,292,2.0,2.0,81,0.00,,CLR,0.00,0.00,VWS V14.01,2013-01-09 12:47:00,
2013-01-09 06:49:00,35.5,30.3,29.34,WSW,241,2.0,3.0,81,0.00,,CLR,0.00,0.00,VWS V14.01,2013-01-09 12:49:00,
2013-01-09 06:51:00,35.5,30.3,29.34,WNW,298,0.0,1.0,81,0.00,,CLR,0.00,0.00,VWS V14.01,2013-01-09 12:51:00,
2013-01-09 06:52:00,35.4,30.2,29.35,NW,311,4.0,4.0,81,0.00,,CLR,0.00,0.00,VWS V14.01,2013-01-09 12:52:00,
2013-01-09 06:57:00,35.4,30.2,29.35,WNW,296,1.0,1.0,81,0.00,,CLR,0.00,0.00,VWS V14.01,2013-01-09 12:57:00,
2013-01-09 06:58:00,35.3,30.1,29.35,WNW,295,0.0,2.0,81,0.00,,CLR,0.00,0.00,VWS V14.01,2013-01-09 12:58:00,
2013-01-09 07:04:00,35.2,30.0,29.36,NW,318,1.0,2.0,81,0.00,,CLR,0.00,0.00,VWS V14.01,2013-01-09 13:04:00,
2013-01-09 07:05:00,35.2,30.0,29.36,NW,317,3.0,4.0,81,0.00,,CLR,0.00,0.00,VWS V14.01,2013-01-09 13:05:00,
2013-01-09 07:09:00,35.1,29.9,29.36,WNW,303,0.0,2.0,81,0.00,,CLR,0.00,0.00,VWS V14.01,2013-01-09 13:09:00,
2013-01-09 07:10:00,35.1,29.9,29.36,WSW,241,1.0,2.0,81,0.00,,CLR,0.00,0.00,VWS V14.01,2013-01-09 13:10:00,
2013-01-09 07:11:00,35.1,29.9,29.36,WSW,241,0.0,1.0,81,0.00,,CLR,0.00,0.00,VWS V14.01,2013-01-09 13:11:00,
2013-01-09 07:16:00,34.9,30.0,29.36,NW,316,0.0,1.0,82,0.00,,CLR,0.00,0.00,VWS V14.01,2013-01-09 13:16:00,
2013-01-09 07:17:00,34.9,30.0,29.36,NW,315,1.0,3.0,82,0.00,,CLR,0.00,0.00,VWS V14.01,2013-01-09 13:17:00,
2013-01-09 07:22:00,34.7,29.8,29.36,NNW,332,1.0,2.0,82,0.00,,CLR,0.00,0.00,VWS V14.01,2013-01-09 13:22:00,
2013-01-09 07:24:00,34.7,29.8,29.36,NNW,332,0.0,2.0,82,0.00,,CLR,0.00,5.00,VWS V14.01,2013-01-09 13:24:00,
2013-01-09 07:25:00,34.6,29.7,29.36,SW,219,0.0,2.0,82,0.00,,CLR,0.00,5.00,VWS V14.01,2013-01-09 13:25:00,
2013-01-09 07:28:00,34.4,29.5,29.37,NW,311,0.0,2.0,82,0.00,,CLR,0.00,7.00,VWS V14.01,2013-01-09 13:28:00,
2013-01-09 07:30:00,34.4,29.5,29.37,NW,311,1.0,2.0,82,0.00,,CLR,0.00,11.00,VWS V14.01,2013-01-09 13:30:00,
2013-01-09 07:32:00,34.4,29.5,29.37,NW,311,1.0,2.0,82,0.00,,CLR,0.00,12.00,VWS V14.01,2013-01-09 13:32:00,
2013-01-09 07:33:00,34.4,29.5,29.37,NW,311,0.0,2.0,82,0.00,,CLR,0.00,12.00,VWS V14.01,2013-01-09 13:33:00,
2013-01-09 07:38:00,34.4,29.8,29.37,West,269,0.0,2.0,83,0.00,,CLR,0.00,16.00,VWS V14.01,2013-01-09 13:38:00,
2013-01-09 07:40:00,34.4,29.8,29.37,NW,313,2.0,2.0,83,0.00,,CLR,0.00,18.00,VWS V14.01,2013-01-09 13:40:00,
2013-01-09 07:41:00,34.4,29.8,29.37,NW,313,1.0,3.0,83,0.00,,CLR,0.00,18.00,VWS V14.01,2013-01-09 13:41:00,
2013-01-09 07:42:00,34.4,29.8,29.37,NW,313,0.0,1.0,83,0.00,,CLR,0.00,18.00,VWS V14.01,2013-01-09 13:42:00,
2013-01-09 07:43:00,34.4,29.8,29.37,West,280,0.0,2.0,83,0.00,,CLR,0.00,18.00,VWS V14.01,2013-01-09 13:43:00,
2013-01-09 07:47:00,34.4,29.8,29.38,West,280,0.0,1.0,83,0.00,,CLR,0.00,21.00,VWS V14.01,2013-01-09 13:47:00,
2013-01-09 07:48:00,34.4,29.8,29.38,West,279,0.0,1.0,83,0.00,,CLR,0.00,21.00,VWS V14.01,2013-01-09 13:48:00,
2013-01-09 07:51:00,34.4,29.8,29.38,West,280,0.0,0.0,83,0.00,,CLR,0.00,26.00,VWS V14.01,2013-01-09 13:51:00,
2013-01-09 07:53:00,34.4,29.8,29.38,WNW,295,1.0,3.0,83,0.00,,CLR,0.00,32.00,VWS V14.01,2013-01-09 13:53:00,
2013-01-09 07:54:00,34.4,29.8,29.38,WNW,295,0.0,2.0,83,0.00,,CLR,0.00,33.00,VWS V14.01,2013-01-09 13:54:00,
2013-01-09 07:58:00,34.3,29.7,29.39,SSW,205,4.0,4.0,83,0.00,,CLR,0.00,30.00,VWS V14.01,2013-01-09 13:58:00,
2013-01-09 07:59:00,34.3,29.7,29.39,SSW,205,0.0,4.0,83,0.00,,CLR,0.00,32.00,VWS V14.01,2013-01-09 13:59:00,
2013-01-09 08:01:00,34.4,29.8,29.39,SSW,209,0.0,3.0,83,0.00,,CLR,0.00,51.00,VWS V14.01,2013-01-09 14:01:00,
2013-01-09 08:04:00,34.4,29.8,29.39,SSW,209,0.0,0.0,83,0.00,,CLR,0.00,51.00,VWS V14.01,2013-01-09 14:04:00,
2013-01-09 08:06:00,34.4,29.8,29.39,WNW,296,0.0,3.0,83,0.00,,CLR,0.00,56.00,VWS V14.01,2013-01-09 14:06:00,
2013-01-09 08:07:00,34.4,29.8,29.39,WNW,296,0.0,0.0,83,0.00,,CLR,0.00,53.00,VWS V14.01,2013-01-09 14:07:00,
2013-01-09 08:09:00,34.4,30.1,29.39,NW,308,2.0,3.0,84,0.00,,CLR,0.00,53.00,VWS V14.01,2013-01-09 14:09:00,
2013-01-09 08:10:00,34.4,30.1,29.39,NW,307,1.0,2.0,84,0.00,,CLR,0.00,58.00,VWS V14.01,2013-01-09 14:10:00,
2013-01-09 08:12:00,34.4,30.1,29.39,NW,313,3.0,3.0,84,0.00,,CLR,0.00,86.00,VWS V14.01,2013-01-09 14:12:00,
2013-01-09 08:15:00,34.4,30.1,29.40,NW,313,0.0,1.0,84,0.00,,CLR,0.00,107.00,VWS V14.01,2013-01-09 14:15:00,
2013-01-09 08:17:00,34.5,29.9,29.40,NW,313,0.0,3.0,83,0.00,,CLR,0.00,98.00,VWS V14.01,2013-01-09 14:17:00,
2013-01-09 08:20:00,34.7,30.1,29.40,SW,236,3.0,6.0,83,0.00,,CLR,0.00,114.00,VWS V14.01,2013-01-09 14:20:00,
2013-01-09 08:21:00,34.8,30.2,29.40,NW,312,2.0,3.0,83,0.00,,CLR,0.00,118.00,VWS V14.01,2013-01-09 14:21:00,
2013-01-09 08:26:00,35.0,30.4,29.40,West,268,0.0,1.0,83,0.00,,CLR,0.00,139.00,VWS V14.01,2013-01-09 14:26:00,
2013-01-09 08:27:00,35.1,30.5,29.40,West,268,0.0,3.0,83,0.00,,CLR,0.00,123.00,VWS V14.01,2013-01-09 14:27:00,
2013-01-09 08:29:00,35.2,30.6,29.40,WSW,241,0.0,1.0,83,0.00,,CLR,0.00,144.00,VWS V14.01,2013-01-09 14:29:00,
2013-01-09 08:30:00,35.2,30.6,29.40,WNW,296,0.0,2.0,83,0.00,,CLR,0.00,149.00,VWS V14.01,2013-01-09 14:30:00,
2013-01-09 08:35:00,35.5,30.6,29.40,WNW,301,4.0,6.0,82,0.00,,CLR,0.00,190.00,VWS V14.01,2013-01-09 14:35:00,
2013-01-09 08:36:00,35.6,30.7,29.40,NW,320,1.0,5.0,82,0.00,,CLR,0.00,190.00,VWS V14.01,2013-01-09 14:36:00,
2013-01-09 08:38:00,35.7,30.8,29.40,WNW,290,2.0,3.0,82,0.00,,CLR,0.00,185.00,VWS V14.01,2013-01-09 14:38:00,
2013-01-09 08:40:00,35.8,30.5,29.40,SW,234,0.0,3.0,81,0.00,,CLR,0.00,202.00,VWS V14.01,2013-01-09 14:40:00,
2013-01-09 08:43:00,36.0,30.8,29.40,NW,314,2.0,5.0,81,0.00,,CLR,0.00,206.00,VWS V14.01,2013-01-09 14:43:00,
2013-01-09 08:44:00,36.0,30.8,29.41,NW,314,0.0,2.0,81,0.00,,CLR,0.00,207.00,VWS V14.01,2013-01-09 14:44:00,
2013-01-09 08:47:00,36.1,30.8,29.40,West,264,0.0,2.0,81,0.00,,CLR,0.00,223.00,VWS V14.01,2013-01-09 14:47:00,
2013-01-09 08:49:00,36.2,30.9,29.40,WNW,300,2.0,2.0,81,0.00,,CLR,0.00,227.00,VWS V14.01,2013-01-09 14:49:00,
2013-01-09 08:51:00,36.3,30.7,29.40,West,271,2.0,3.0,80,0.00,,CLR,0.00,232.00,VWS V14.01,2013-01-09 14:51:00,
2013-01-09 08:52:00,36.4,30.8,29.40,West,271,0.0,2.0,80,0.00,,CLR,0.00,234.00,VWS V14.01,2013-01-09 14:52:00,
2013-01-09 08:56:00,36.5,30.9,29.40,WNW,284,1.0,2.0,80,0.00,,CLR,0.00,239.00,VWS V14.01,2013-01-09 14:56:00,
2013-01-09 08:57:00,36.6,31.0,29.40,WNW,302,4.0,4.0,80,0.00,,CLR,0.00,237.00,VWS V14.01,2013-01-09 14:57:00,
2013-01-09 09:02:00,36.8,30.9,29.41,NW,309,1.0,4.0,79,0.00,,CLR,0.00,260.00,VWS V14.01,2013-01-09 15:02:00,
2013-01-09 09:03:00,36.9,31.0,29.41,West,275,1.0,2.0,79,0.00,,CLR,0.00,258.00,VWS V14.01,2013-01-09 15:03:00,
2013-01-09 09:04:00,37.0,31.1,29.41,WNW,303,9.0,9.0,79,0.00,,CLR,0.00,265.00,VWS V14.01,2013-01-09 15:04:00,
2013-01-09 09:09:00,37.1,31.2,29.41,NW,304,2.0,4.0,79,0.00,,CLR,0.00,213.00,VWS V14.01,2013-01-09 15:09:00,
2013-01-09 09:10:00,37.2,31.3,29.41,SW,236,2.0,6.0,79,0.00,,CLR,0.00,250.00,VWS V14.01,2013-01-09 15:10:00,
2013-01-09 09:11:00,37.2,31.3,29.41,NW,307,6.0,6.0,79,0.00,,CLR,0.00,272.00,VWS V14.01,2013-01-09 15:11:00,
2013-01-09 09:15:00,37.4,31.2,29.42,WSW,244,1.0,2.0,78,0.00,,CLR,0.00,221.00,VWS V14.01,2013-01-09 15:15:00,
2013-01-09 09:16:00,37.4,31.2,29.42,NNW,347,3.0,3.0,78,0.00,,CLR,0.00,250.00,VWS V14.01,2013-01-09 15:16:00,
2013-01-09 09:18:00,37.5,31.3,29.42,SSW,200,1.0,3.0,78,0.00,,CLR,0.00,299.00,VWS V14.01,2013-01-09 15:18:00,
2013-01-09 09:22:00,37.7,31.5,29.42,NW,306,2.0,3.0,78,0.00,,CLR,0.00,295.00,VWS V14.01,2013-01-09 15:22:00,
2013-01-09 09:24:00,37.8,31.6,29.42,NW,317,3.0,3.0,78,0.00,,CLR,0.00,255.00,VWS V14.01,2013-01-09 15:24:00,
2013-01-09 09:25:00,37.8,31.2,29.42,WNW,291,3.0,6.0,77,0.00,,CLR,0.00,244.00,VWS V14.01,2013-01-09 15:25:00,
2013-01-09 09:26:00,37.9,31.4,29.42,WNW,300,6.0,8.0,77,0.00,,CLR,0.00,237.00,VWS V14.01,2013-01-09 15:26:00,
2013-01-09 09:28:00,38.0,31.4,29.42,WNW,301,1.0,5.0,77,0.00,,CLR,0.00,251.00,VWS V14.01,2013-01-09 15:28:00,
2013-01-09 09:31:00,38.2,31.6,29.42,NW,311,1.0,5.0,77,0.00,,CLR,0.00,276.00,VWS V14.01,2013-01-09 15:31:00,
2013-01-09 09:33:00,38.3,31.7,29.43,SW,222,4.0,7.0,77,0.00,,CLR,0.00,279.00,VWS V14.01,2013-01-09 15:33:00,
2013-01-09 09:37:00,38.4,31.5,29.43,West,274,2.0,2.0,76,0.00,,CLR,0.00,258.00,VWS V14.01,2013-01-09 15:37:00,
2013-01-09 09:38:00,38.5,31.6,29.43,West,274,1.0,3.0,76,0.00,,CLR,0.00,294.00,VWS V14.01,2013-01-09 15:38:00,
2013-01-09 09:39:00,38.5,31.6,29.43,West,270,2.0,3.0,76,0.00,,CLR,0.00,264.00,VWS V14.01,2013-01-09 15:39:00,
2013-01-09 09:42:00,38.7,31.8,29.43,NNW,327,0.0,4.0,76,0.00,,CLR,0.00,287.00,VWS V14.01,2013-01-09 15:42:00,
2013-01-09 09:44:00,38.8,31.9,29.44,SW,218,4.0,4.0,76,0.00,,CLR,0.00,309.00,VWS V14.01,2013-01-09 15:44:00,
2013-01-09 09:45:00,38.8,31.9,29.44,WNW,300,4.0,4.0,76,0.00,,CLR,0.00,339.00,VWS V14.01,2013-01-09 15:45:00,
2013-01-09 09:50:00,39.0,31.8,29.44,WNW,301,2.0,6.0,75,0.00,,CLR,0.00,294.00,VWS V14.01,2013-01-09 15:50:00,
2013-01-09 09:51:00,39.0,31.8,29.44,WSW,250,3.0,3.0,75,0.00,,CLR,0.00,267.00,VWS V14.01,2013-01-09 15:51:00,
2013-01-09 09:53:00,39.0,31.8,29.44,WNW,301,6.0,7.0,75,0.00,,CLR,0.00,246.00,VWS V14.01,2013-01-09 15:53:00,
2013-01-09 09:57:00,39.1,31.9,29.43,NW,304,2.0,4.0,75,0.00,,CLR,0.00,250.00,VWS V14.01,2013-01-09 15:57:00,
2013-01-09 09:59:00,39.1,31.9,29.43,SW,232,4.0,4.0,75,0.00,,CLR,0.00,308.00,VWS V14.01,2013-01-09 15:59:00,
2013-01-09 10:01:00,39.0,31.8,29.44,SW,223,3.0,4.0,75,0.00,,CLR,0.00,309.00,VWS V14.01,2013-01-09 16:01:00,
2013-01-09 10:02:00,39.0,31.8,29.44,WSW,258,1.0,3.0,75,0.00,,CLR,0.00,295.00,VWS V14.01,2013-01-09 16:02:00,
2013-01-09 10:04:00,39.1,31.9,29.44,NW,321,3.0,3.0,75,0.00,,CLR,0.00,330.00,VWS V14.01,2013-01-09 16:04:00,
2013-01-09 10:08:00,39.2,32.0,29.44,SW,233,0.0,4.0,75,0.00,,CLR,0.00,408.00,VWS V14.01,2013-01-09 16:08:00,
2013-01-09 10:09:00,39.2,32.0,29.44,WNW,292,3.0,3.0,75,0.00,,CLR,0.00,408.00,VWS V14.01,2013-01-09 16:09:00,
2013-01-09 10:10:00,39.3,32.0,29.44,SW,221,4.0,5.0,75,0.00,,CLR,0.00,290.00,VWS V14.01,2013-01-09 16:10:00,
2013-01-09 10:12:00,39.3,32.0,29.44,NW,306,4.0,8.0,75,0.00,,CLR,0.00,353.00,VWS V14.01,2013-01-09 16:12:00,
2013-01-09 10:15:00,39.4,32.2,29.44,NNW,327,0.0,3.0,75,0.00,,CLR,0.00,362.00,VWS V14.01,2013-01-09 16:15:00,
2013-01-09 10:17:00,39.4,32.2,29.44,SSW,202,2.0,3.0,75,0.00,,CLR,0.00,360.00,VWS V14.01,2013-01-09 16:17:00,
2013-01-09 10:20:00,39.5,32.2,29.44,NW,306,2.0,2.0,75,0.00,,CLR,0.00,309.00,VWS V14.01,2013-01-09 16:20:00,
2013-01-09 10:22:00,39.6,32.3,29.44,WSW,256,2.0,3.0,75,0.00,,CLR,0.00,246.00,VWS V14.01,2013-01-09 16:22:00,
2013-01-09 10:23:00,39.6,32.3,29.44,WNW,299,3.0,6.0,75,0.00,,CLR,0.00,251.00,VWS V14.01,2013-01-09 16:23:00,
2013-01-09 10:26:00,39.7,32.1,29.44,WNW,300,1.0,3.0,74,0.00,,CLR,0.00,271.00,VWS V14.01,2013-01-09 16:26:00,
2013-01-09 10:27:00,39.7,32.1,29.44,NW,306,2.0,6.0,74,0.00,,CLR,0.00,294.00,VWS V14.01,2013-01-09 16:27:00,
2013-01-09 10:29:00,39.6,32.0,29.44,SSW,210,2.0,5.0,74,0.00,,CLR,0.00,336.00,VWS V14.01,2013-01-09 16:29:00,
2013-01-09 10:30:00,39.7,32.1,29.44,SSW,210,0.0,3.0,74,0.00,,CLR,0.00,345.00,VWS V14.01,2013-01-09 16:30:00,
2013-01-09 10:33:00,39.8,32.5,29.44,NW,311,1.0,4.0,75,0.00,,CLR,0.00,320.00,VWS V14.01,2013-01-09 16:33:00,
2013-01-09 10:34:00,39.8,32.5,29.44,West,279,3.0,4.0,75,0.00,,CLR,0.00,362.00,VWS V14.01,2013-01-09 16:34:00,
2013-01-09 10:36:00,39.9,32.6,29.44,SSW,211,3.0,3.0,75,0.00,,CLR,0.00,403.00,VWS V14.01,2013-01-09 16:36:00,
2013-01-09 10:37:00,39.8,32.5,29.44,NW,313,3.0,3.0,75,0.00,,CLR,0.00,413.00,VWS V14.01,2013-01-09 16:37:00,
2013-01-09 10:39:00,40.0,32.7,29.45,NW,318,1.0,5.0,75,0.00,,CLR,0.00,385.00,VWS V14.01,2013-01-09 16:39:00,
2013-01-09 10:43:00,40.2,32.6,29.45,West,281,4.0,4.0,74,0.00,,CLR,0.00,339.00,VWS V14.01,2013-01-09 16:43:00,
2013-01-09 10:45:00,40.2,32.6,29.45,NW,316,6.0,6.0,74,0.00,,CLR,0.00,371.00,VWS V14.01,2013-01-09 16:45:00,
2013-01-09 10:46:00,40.3,32.7,29.45,West,267,2.0,6.0,74,0.00,,CLR,0.00,355.00,VWS V14.01,2013-01-09 16:46:00,
2013-01-09 10:47:00,40.3,32.7,29.45,NW,312,2.0,4.0,74,0.00,,CLR,0.00,348.00,VWS V14.01,2013-01-09 16:47:00,
2013-01-09 10:50:00,40.5,32.9,29.45,West,266,1.0,3.0,74,0.00,,CLR,0.00,381.00,VWS V14.01,2013-01-09 16:50:00,
2013-01-09 10:53:00,40.6,33.0,29.45,NW,321,0.0,3.0,74,0.00,,CLR,0.00,346.00,VWS V14.01,2013-01-09 16:53:00,
2013-01-09 10:58:00,40.6,32.6,29.45,SW,217,4.0,6.0,73,0.00,,CLR,0.00,390.00,VWS V14.01,2013-01-09 16:58:00,
2013-01-09 10:59:00,40.6,32.6,29.45,SW,234,2.0,5.0,73,0.00,,CLR,0.00,411.00,VWS V14.01,2013-01-09 16:59:00,
2013-01-09 11:01:00,40.6,32.6,29.45,West,265,2.0,5.0,73,0.00,,CLR,0.00,413.00,VWS V14.01,2013-01-09 17:01:00,
2013-01-09 11:02:00,40.6,32.6,29.45,SW,229,3.0,6.0,73,0.00,,CLR,0.00,427.00,VWS V14.01,2013-01-09 17:02:00,
2013-01-09 11:07:00,40.8,33.2,29.46,SSW,202,2.0,3.0,74,0.00,,CLR,0.00,446.00,VWS V14.01,2013-01-09 17:07:00,
2013-01-09 11:08:00,40.9,33.3,29.46,NW,315,1.0,3.0,74,0.00,,CLR,0.00,439.00,VWS V14.01,2013-01-09 17:08:00,
2013-01-09 11:09:00,41.0,33.4,29.46,West,272,3.0,7.0,74,0.00,,CLR,0.00,446.00,VWS V14.01,2013-01-09 17:09:00,
2013-01-09 11:13:00,41.2,33.2,29.46,WNW,299,0.0,5.0,73,0.00,,CLR,0.00,360.00,VWS V14.01,2013-01-09 17:13:00,
2013-01-09 11:15:00,41.3,33.3,29.46,NW,321,1.0,3.0,73,0.00,,CLR,0.00,401.00,VWS V14.01,2013-01-09 17:15:00,
2013-01-09 11:16:00,41.3,33.3,29.46,NW,307,4.0,8.0,73,0.00,,CLR,0.00,404.00,VWS V14.01,2013-01-09 17:16:00,
2013-01-09 11:17:00,41.3,33.3,29.46,NW,309,1.0,4.0,73,0.00,,CLR,0.00,418.00,VWS V14.01,2013-01-09 17:17:00,
2013-01-09 11:19:00,41.3,33.3,29.46,NW,312,1.0,5.0,73,0.00,,CLR,0.00,457.00,VWS V14.01,2013-01-09 17:19:00,
2013-01-09 11:20:00,41.4,33.4,29.45,NW,312,2.0,4.0,73,0.00,,CLR,0.00,417.00,VWS V14.01,2013-01-09 17:20:00,
2013-01-09 11:21:00,41.4,33.4,29.45,NW,313,3.0,4.0,73,0.00,,CLR,0.00,374.00,VWS V14.01,2013-01-09 17:21:00,
2013-01-09 11:25:00,41.5,33.5,29.46,WNW,302,2.0,6.0,73,0.00,,CLR,0.00,394.00,VWS V14.01,2013-01-09 17:25:00,
2013-01-09 11:27:00,41.5,33.5,29.45,NW,304,1.0,3.0,73,0.00,,CLR,0.00,413.00,VWS V14.01,2013-01-09 17:27:00,
2013-01-09 11:29:00,41.5,33.5,29.45,SW,227,1.0,4.0,73,0.00,,CLR,0.00,461.00,VWS V14.01,2013-01-09 17:29:00,
2013-01-09 11:31:00,41.6,33.6,29.45,WNW,292,7.0,10.0,73,0.00,,CLR,0.00,431.00,VWS V14.01,2013-01-09 17:31:00,
2013-01-09 11:32:00,41.6,33.6,29.45,WNW,298,3.0,7.0,73,0.00,,CLR,0.00,429.00,VWS V14.01,2013-01-09 17:32:00,
2013-01-09 11:37:00,41.8,33.8,29.45,West,261,1.0,9.0,73,0.00,,CLR,0.00,450.00,VWS V14.01,2013-01-09 17:37:00,
2013-01-09 11:38:00,41.8,33.8,29.45,West,279,2.0,7.0,73,0.00,,CLR,0.00,439.00,VWS V14.01,2013-01-09 17:38:00,
2013-01-09 11:39:00,41.8,33.8,29.45,NNW,327,3.0,4.0,73,0.00,,CLR,0.00,438.00,VWS V14.01,2013-01-09 17:39:00,
2013-01-09 11:43:00,42.0,33.6,29.44,WNW,284,4.0,9.0,72,0.00,,CLR,0.00,489.00,VWS V14.01,2013-01-09 17:43:00,
2013-01-09 11:44:00,42.0,33.6,29.45,West,260,6.0,8.0,72,0.00,,CLR,0.00,462.00,VWS V14.01,2013-01-09 17:44:00,
2013-01-09 11:45:00,42.0,33.6,29.45,WSW,250,3.0,6.0,72,0.00,,CLR,0.00,497.00,VWS V14.01,2013-01-09 17:45:00,
2013-01-09 11:48:00,42.0,33.6,29.45,WNW,300,2.0,7.0,72,0.00,,CLR,0.00,513.00,VWS V14.01,2013-01-09 17:48:00,
2013-01-09 11:49:00,42.0,33.6,29.44,NW,304,5.0,8.0,72,0.00,,CLR,0.00,524.00,VWS V14.01,2013-01-09 17:49:00,
2013-01-09 11:52:00,42.1,33.7,29.44,West,279,2.0,3.0,72,0.00,,CLR,0.00,487.00,VWS V14.01,2013-01-09 17:52:00,
2013-01-09 11:56:00,42.4,34.0,29.44,NW,313,0.0,4.0,72,0.00,,CLR,0.00,469.00,VWS V14.01,2013-01-09 17:56:00,
2013-01-09 11:57:00,42.5,34.1,29.44,NW,311,3.0,4.0,72,0.00,,CLR,0.00,482.00,VWS V14.01,2013-01-09 17:57:00,
2013-01-09 11:58:00,42.6,34.2,29.44,NW,314,0.0,4.0,72,0.00,,CLR,0.00,475.00,VWS V14.01,2013-01-09 17:58:00,
2013-01-09 12:01:00,42.9,34.5,29.44,WNW,300,1.0,2.0,72,0.00,,CLR,0.00,506.00,VWS V14.01,2013-01-09 18:01:00,
2013-01-09 12:04:00,43.1,34.0,29.44,West,267,2.0,6.0,70,0.00,,CLR,0.00,499.00,VWS V14.01,2013-01-09 18:04:00,
2013-01-09 12:05:00,43.2,34.1,29.44,NW,319,4.0,5.0,70,0.00,,CLR,0.00,519.00,VWS V14.01,2013-01-09 18:05:00,
2013-01-09 12:08:00,43.3,34.2,29.44,WNW,299,3.0,5.0,70,0.00,,CLR,0.00,429.00,VWS V14.01,2013-01-09 18:08:00,
2013-01-09 12:09:00,43.4,34.3,29.44,WNW,299,2.0,3.0,70,0.00,,CLR,0.00,422.00,VWS V14.01,2013-01-09 18:09:00,
2013-01-09 12:10:00,43.4,33.9,29.44,WSW,248,1.0,6.0,69,0.00,,CLR,0.00,413.00,VWS V14.01,2013-01-09 18:10:00,
2013-01-09 12:14:00,43.6,34.5,29.44,WNW,293,4.0,4.0,70,0.00,,CLR,0.00,418.00,VWS V14.01,2013-01-09 18:14:00,
2013-01-09 12:15:00,43.7,34.2,29.44,NW,308,2.0,4.0,69,0.00,,CLR,0.00,462.00,VWS V14.01,2013-01-09 18:15:00,
2013-01-09 12:17:00,43.8,34.3,29.44,NW,304,3.0,6.0,69,0.00,,CLR,0.00,489.00,VWS V14.01,2013-01-09 18:17:00,
2013-01-09 12:19:00,43.8,34.3,29.44,NW,324,5.0,8.0,69,0.00,,CLR,0.00,483.00,VWS V14.01,2013-01-09 18:19:00,
2013-01-09 12:20:00,43.8,33.9,29.44,NW,316,3.0,5.0,68,0.00,,CLR,0.00,483.00,VWS V14.01,2013-01-09 18:20:00,
2013-01-09 12:24:00,43.9,34.4,29.44,WNW,283,4.0,5.0,69,0.00,,CLR,0.00,482.00,VWS V14.01,2013-01-09 18:24:00,
2013-01-09 12:25:00,43.9,34.0,29.44,NNW,334,3.0,5.0,68,0.00,,CLR,0.00,492.00,VWS V14.01,2013-01-09 18:25:00,
2013-01-09 12:28:00,43.9,34.4,29.44,NW,323,2.0,4.0,69,0.00,,CLR,0.00,490.00,VWS V14.01,2013-01-09 18:28:00,
2013-01-09 12:29:00,44.0,34.5,29.44,NW,304,8.0,8.0,69,0.00,,CLR,0.00,464.00,VWS V14.01,2013-01-09 18:29:00,
2013-01-09 12:31:00,44.0,34.1,29.44,ENE,64,1.0,5.0,68,0.00,,CLR,0.00,475.00,VWS V14.01,2013-01-09 18:31:00,
2013-01-09 12:32:00,44.0,34.1,29.44,West,281,1.0,4.0,68,0.00,,CLR,0.00,471.00,VWS V14.01,2013-01-09 18:32:00,
2013-01-09 12:35:00,44.1,34.2,29.44,West,275,3.0,6.0,68,0.00,,CLR,0.00,522.00,VWS V14.01,2013-01-09 18:35:00,
2013-01-09 12:36:00,44.1,34.2,29.44,WNW,297,6.0,7.0,68,0.00,,CLR,0.00,554.00,VWS V14.01,2013-01-09 18:36:00,
2013-01-09 12:38:00,44.2,34.0,29.44,WNW,297,2.0,7.0,67,0.00,,CLR,0.00,568.00,VWS V14.01,2013-01-09 18:38:00,
2013-01-09 12:41:00,44.4,34.5,29.44,WNW,295,4.0,5.0,68,0.00,,CLR,0.00,429.00,VWS V14.01,2013-01-09 18:41:00,
2013-01-09 12:43:00,44.5,34.2,29.44,NW,305,4.0,8.0,67,0.00,,CLR,0.00,469.00,VWS V14.01,2013-01-09 18:43:00,
2013-01-09 12:44:00,44.6,34.3,29.44,WNW,287,0.0,5.0,67,0.00,,CLR,0.00,454.00,VWS V14.01,2013-01-09 18:44:00,
2013-01-09 12:45:00,44.6,34.3,29.44,NW,310,2.0,5.0,67,0.00,,CLR,0.00,466.00,VWS V14.01,2013-01-09 18:45:00,
2013-01-09 12:47:00,44.8,34.5,29.44,NW,305,4.0,5.0,67,0.00,,CLR,0.00,466.00,VWS V14.01,2013-01-09 18:47:00,
2013-01-09 12:48:00,44.9,34.6,29.43,NW,324,1.0,4.0,67,0.00,,CLR,0.00,461.00,VWS V14.01,2013-01-09 18:48:00,
2013-01-09 12:52:00,45.1,34.4,29.44,West,281,1.0,6.0,66,0.00,,CLR,0.00,489.00,VWS V14.01,2013-01-09 18:52:00,
2013-01-09 12:54:00,45.2,34.5,29.44,NW,311,8.0,8.0,66,0.00,,CLR,0.00,464.00,VWS V14.01,2013-01-09 18:54:00,
2013-01-09 12:58:00,45.3,34.2,29.43,NW,304,8.0,8.0,65,0.00,,CLR,0.00,476.00,VWS V14.01,2013-01-09 18:58:00,
2013-01-09 12:59:00,45.4,34.3,29.43,WSW,257,3.0,8.0,65,0.00,,CLR,0.00,503.00,VWS V14.01,2013-01-09 18:59:00,
2013-01-09 13:00:00,45.4,34.3,29.43,WNW,290,10.0,10.0,65,0.00,,CLR,0.00,461.00,VWS V14.01,2013-01-09 19:00:00,
2013-01-09 13:03:00,45.4,34.3,29.44,NW,306,1.0,3.0,65,0.00,,CLR,0.00,512.00,VWS V14.01,2013-01-09 19:03:00,
2013-01-09 13:05:00,45.5,34.4,29.44,NNW,345,3.0,7.0,65,0.00,,CLR,0.00,438.00,VWS V14.01,2013-01-09 19:05:00,
2013-01-09 13:06:00,45.6,34.1,29.44,NW,326,4.0,6.0,64,0.00,,CLR,0.00,438.00,VWS V14.01,2013-01-09 19:06:00,
2013-01-09 13:11:00,45.9,34.8,29.43,NW,325,0.0,4.0,65,0.00,,CLR,0.00,287.00,VWS V14.01,2013-01-09 19:11:00,
2013-01-09 13:12:00,45.9,34.8,29.43,WNW,294,7.0,7.0,65,0.00,,CLR,0.00,267.00,VWS V14.01,2013-01-09 19:12:00,
2013-01-09 13:17:00,46.3,34.8,29.44,NW,323,4.0,5.0,64,0.00,,CLR,0.00,508.00,VWS V14.01,2013-01-09 19:17:00,
2013-01-09 13:18:00,46.3,34.8,29.44,West,275,4.0,8.0,64,0.00,,CLR,0.00,487.00,VWS V14.01,2013-01-09 19:18:00,
2013-01-09 13:19:00,46.3,34.8,29.44,NW,313,4.0,6.0,64,0.00,,CLR,0.00,482.00,VWS V14.01,2013-01-09 19:19:00,
2013-01-09 13:23:00,46.5,34.6,29.44,NNW,328,3.0,5.0,63,0.00,,CLR,0.00,512.00,VWS V14.01,2013-01-09 19:23:00,
2013-01-09 13:24:00,46.6,34.3,29.44,NNW,338,4.0,7.0,62,0.00,,CLR,0.00,517.00,VWS V14.01,2013-01-09 19:24:00,
2013-01-09 13:25:00,46.7,34.4,29.44,NW,311,3.0,7.0,62,0.00,,CLR,0.00,510.00,VWS V14.01,2013-01-09 19:25:00,
2013-01-09 13:28:00,46.9,34.2,29.44,WNW,296,2.0,9.0,61,0.00,,CLR,0.00,468.00,VWS V14.01,2013-01-09 19:28:00,
2013-01-09 13:29:00,47.0,34.3,29.44,WNW,294,2.0,8.0,61,0.00,,CLR,0.00,457.00,VWS V14.01,2013-01-09 19:29:00,
2013-01-09 13:30:00,47.1,34.4,29.44,NW,309,3.0,5.0,61,0.00,,CLR,0.00,457.00,VWS V14.01,2013-01-09 19:30:00,
2013-01-09 13:34:00,47.4,34.2,29.44,NW,305,4.0,6.0,60,0.00,,CLR,0.00,494.00,VWS V14.01,2013-01-09 19:34:00,
2013-01-09 13:38:00,47.6,34.0,29.45,NW,319,4.0,6.0,59,0.00,,CLR,0.00,480.00,VWS V14.01,2013-01-09 19:38:00,
2013-01-09 13:39:00,47.7,34.1,29.45,NW,306,4.0,6.0,59,0.00,,CLR,0.00,480.00,VWS V14.01,2013-01-09 19:39:00,
2013-01-09 13:42:00,47.8,34.2,29.45,NW,309,4.0,5.0,59,0.00,,CLR,0.00,508.00,VWS V14.01,2013-01-09 19:42:00,
2013-01-09 13:44:00,47.8,33.8,29.45,WNW,298,2.0,5.0,58,0.00,,CLR,0.00,515.00,VWS V14.01,2013-01-09 19:44:00,
2013-01-09 13:45:00,47.9,33.8,29.45,NW,323,3.0,4.0,58,0.00,,CLR,0.00,504.00,VWS V14.01,2013-01-09 19:45:00,
2013-01-09 13:50:00,48.3,32.9,29.46,WNW,292,7.0,7.0,55,0.00,,CLR,0.00,438.00,VWS V14.01,2013-01-09 19:50:00,
2013-01-09 13:54:00,48.3,32.4,29.46,West,263,3.0,6.0,54,0.00,,CLR,0.00,381.00,VWS V14.01,2013-01-09 19:54:00,
2013-01-09 13:55:00,48.3,32.9,29.46,West,275,2.0,3.0,55,0.00,,CLR,0.00,373.00,VWS V14.01,2013-01-09 19:55:00,
2013-01-09 13:56:00,48.4,33.0,29.46,NW,305,3.0,3.0,55,0.00,,CLR,0.00,371.00,VWS V14.01,2013-01-09 19:56:00,
2013-01-09 14:00:00,48.4,32.5,29.46,NW,313,1.0,7.0,54,0.00,,CLR,0.00,339.00,VWS V14.01,2013-01-09 20:00:00,
2013-01-09 14:01:00,48.4,32.5,29.46,NW,321,3.0,3.0,54,0.00,,CLR,0.00,329.00,VWS V14.01,2013-01-09 20:01:00,
2013-01-09 14:02:00,48.5,32.6,29.46,WNW,284,3.0,8.0,54,0.00,,CLR,0.00,330.00,VWS V14.01,2013-01-09 20:02:00,
2013-01-09 14:03:00,48.5,32.6,29.46,NW,304,2.0,4.0,54,0.00,,CLR,0.00,341.00,VWS V14.01,2013-01-09 20:03:00,
2013-01-09 14:06:00,48.5,32.2,29.46,WNW,292,7.0,7.0,53,0.00,,CLR,0.00,278.00,VWS V14.01,2013-01-09 20:06:00,
2013-01-09 14:09:00,48.4,32.1,29.46,WNW,298,7.0,7.0,53,0.00,,CLR,0.00,304.00,VWS V14.01,2013-01-09 20:09:00,
2013-01-09 14:12:00,48.3,31.5,29.47,NW,304,2.0,3.0,52,0.00,,CLR,0.00,295.00,VWS V14.01,2013-01-09 20:12:00,
2013-01-09 14:15:00,48.3,31.5,29.46,NW,311,3.0,6.0,52,0.00,,CLR,0.00,327.00,VWS V14.01,2013-01-09 20:15:00,
2013-01-09 14:16:00,48.3,32.0,29.46,WNW,300,1.0,3.0,53,0.00,,CLR,0.00,336.00,VWS V14.01,2013-01-09 20:16:00,
2013-01-09 14:20:00,48.5,32.2,29.46,NW,317,3.0,4.0,53,0.00,,CLR,0.00,253.00,VWS V14.01,2013-01-09 20:20:00,
2013-01-09 14:21:00,48.6,31.8,29.47,WNW,284,3.0,5.0,52,0.00,,CLR,0.00,207.00,VWS V14.01,2013-01-09 20:21:00,
2013-01-09 14:23:00,48.6,31.8,29.47,NNW,338,4.0,5.0,52,0.00,,CLR,0.00,227.00,VWS V14.01,2013-01-09 20:23:00,
2013-01-09 14:26:00,48.6,31.3,29.47,NNW,340,1.0,7.0,51,0.00,,CLR,0.00,223.00,VWS V14.01,2013-01-09 20:26:00,
2013-01-09 14:28:00,48.6,31.8,29.47,NW,317,1.0,7.0,52,0.00,,CLR,0.00,179.00,VWS V14.01,2013-01-09 20:28:00,
2013-01-09 14:32:00,48.7,31.4,29.48,West,259,5.0,6.0,51,0.00,,CLR,0.00,190.00,VWS V14.01,2013-01-09 20:32:00,
2013-01-09 14:36:00,48.7,31.4,29.48,NW,307,3.0,6.0,51,0.00,,CLR,0.00,190.00,VWS V14.01,2013-01-09 20:36:00,
2013-01-09 14:39:00,48.6,30.3,29.48,WNW,296,3.0,6.0,49,0.00,,CLR,0.00,100.00,VWS V14.01,2013-01-09 20:39:00,
2013-01-09 14:41:00,48.7,30.9,29.48,WNW,298,4.0,4.0,50,0.00,,CLR,0.00,118.00,VWS V14.01,2013-01-09 20:41:00,
2013-01-09 14:45:00,48.8,31.0,29.48,West,263,5.0,5.0,50,0.00,,CLR,0.00,156.00,VWS V14.01,2013-01-09 20:45:00,
2013-01-09 14:46:00,48.8,31.0,29.49,WNW,292,4.0,5.0,50,0.00,,CLR,0.00,188.00,VWS V14.01,2013-01-09 20:46:00,
2013-01-09 14:47:00,48.9,31.1,29.49,West,268,6.0,7.0,50,0.00,,CLR,0.00,200.00,VWS V14.01,2013-01-09 20:47:00,
2013-01-09 14:50:00,48.9,31.1,29.49,NW,311,2.0,5.0,50,0.00,,CLR,0.00,262.00,VWS V14.01,2013-01-09 20:50:00,
2013-01-09 14:53:00,49.0,30.7,29.49,NW,315,0.0,4.0,49,0.00,,CLR,0.00,188.00,VWS V14.01,2013-01-09 20:53:00,
2013-01-09 14:58:00,49.1,30.8,29.49,NW,310,0.0,4.0,49,0.00,,CLR,0.00,146.00,VWS V14.01,2013-01-09 20:58:00,
2013-01-09 14:59:00,49.1,30.8,29.49,West,273,2.0,4.0,49,0.00,,CLR,0.00,142.00,VWS V14.01,2013-01-09 20:59:00,
2013-01-09 15:00:00,49.1,30.8,29.49,WNW,286,3.0,3.0,49,0.00,,CLR,0.00,104.00,VWS V14.01,2013-01-09 21:00:00,
2013-01-09 15:04:00,49.2,30.9,29.49,NNW,341,3.0,6.0,49,0.00,,CLR,0.00,174.00,VWS V14.01,2013-01-09 21:04:00,
2013-01-09 15:05:00,49.2,29.3,29.49,WNW,300,6.0,7.0,46,0.00,,CLR,0.00,188.00,VWS V14.01,2013-01-09 21:05:00,
2013-01-09 15:07:00,49.2,28.8,29.49,West,261,3.0,7.0,45,0.00,,CLR,0.00,211.00,VWS V14.01,2013-01-09 21:07:00,
2013-01-09 15:11:00,49.2,28.2,29.49,WNW,296,3.0,7.0,44,0.00,,CLR,0.00,118.00,VWS V14.01,2013-01-09 21:11:00,
2013-01-09 15:12:00,49.3,28.3,29.49,NW,309,3.0,7.0,44,0.00,,CLR,0.00,84.00,VWS V14.01,2013-01-09 21:12:00,
2013-01-09 15:17:00,49.2,28.8,29.50,NW,306,1.0,4.0,45,0.00,,CLR,0.00,120.00,VWS V14.01,2013-01-09 21:17:00,
2013-01-09 15:18:00,49.2,28.8,29.50,NW,306,0.0,4.0,45,0.00,,CLR,0.00,128.00,VWS V14.01,2013-01-09 21:18:00,
2013-01-09 15:19:00,49.2,29.3,29.50,NW,306,1.0,3.0,46,0.00,,CLR,0.00,185.00,VWS V14.01,2013-01-09 21:19:00,
2013-01-09 15:24:00,49.2,29.3,29.50,WNW,296,1.0,2.0,46,0.00,,CLR,0.00,132.00,VWS V14.01,2013-01-09 21:24:00,
2013-01-09 15:25:00,49.2,29.3,29.50,WNW,299,2.0,3.0,46,0.00,,CLR,0.00,121.00,VWS V14.01,2013-01-09 21:25:00,
2013-01-09 15:26:00,49.2,29.3,29.50,NW,305,2.0,5.0,46,0.00,,CLR,0.00,109.00,VWS V14.01,2013-01-09 21:26:00,
2013-01-09 15:30:00,49.1,28.7,29.50,WSW,242,5.0,6.0,45,0.00,,CLR,0.00,113.00,VWS V14.01,2013-01-09 21:30:00,
2013-01-09 15:31:00,49.1,28.7,29.50,NW,309,1.0,6.0,45,0.00,,CLR,0.00,135.00,VWS V14.01,2013-01-09 21:31:00,
2013-01-09 15:32:00,49.0,28.0,29.50,NNW,329,2.0,4.0,44,0.00,,CLR,0.00,135.00,VWS V14.01,2013-01-09 21:32:00,
2013-01-09 15:34:00,49.0,28.0,29.50,WNW,290,3.0,7.0,44,0.00,,CLR,0.00,153.00,VWS V14.01,2013-01-09 21:34:00,
2013-01-09 15:37:00,48.8,28.4,29.50,NNW,331,2.0,8.0,45,0.00,,CLR,0.00,111.00,VWS V14.01,2013-01-09 21:37:00,
2013-01-09 15:38:00,48.7,27.8,29.50,NW,325,3.0,3.0,44,0.00,,CLR,0.00,100.00,VWS V14.01,2013-01-09 21:38:00,
2013-01-09 15:39:00,48.7,28.3,29.50,WNW,294,3.0,4.0,45,0.00,,CLR,0.00,74.00,VWS V14.01,2013-01-09 21:39:00,
2013-01-09 15:40:00,48.6,27.7,29.50,NW,308,4.0,7.0,44,0.00,,CLR,0.00,53.00,VWS V14.01,2013-01-09 21:40:00,
2013-01-09 15:42:00,48.5,27.6,29.50,NNW,330,4.0,6.0,44,0.00,,CLR,0.00,97.00,VWS V14.01,2013-01-09 21:42:00,
2013-01-09 15:44:00,48.4,27.5,29.50,West,270,1.0,3.0,44,0.00,,CLR,0.00,107.00,VWS V14.01,2013-01-09 21:44:00,
2013-01-09 15:45:00,48.3,27.4,29.50,SW,218,0.0,4.0,44,0.00,,CLR,0.00,90.00,VWS V14.01,2013-01-09 21:45:00,
2013-01-09 15:46:00,48.3,27.4,29.50,West,277,4.0,8.0,44,0.00,,CLR,0.00,77.00,VWS V14.01,2013-01-09 21:46:00,
2013-01-09 15:51:00,48.1,27.2,29.50,NNW,329,2.0,7.0,44,0.00,,CLR,0.00,81.00,VWS V14.01,2013-01-09 21:51:00,
2013-01-09 15:54:00,48.0,27.7,29.50,WNW,298,0.0,3.0,45,0.00,,CLR,0.00,84.00,VWS V14.01,2013-01-09 21:54:00,
2013-01-09 15:55:00,47.9,27.6,29.50,WNW,299,1.0,3.0,45,0.00,,CLR,0.00,70.00,VWS V14.01,2013-01-09 21:55:00,
2013-01-09 16:00:00,47.6,27.3,29.51,NW,320,1.0,7.0,45,0.00,,CLR,0.00,56.00,VWS V14.01,2013-01-09 22:00:00,
2013-01-09 16:01:00,47.6,27.3,29.51,NW,320,1.0,2.0,45,0.00,,CLR,0.00,65.00,VWS V14.01,2013-01-09 22:01:00,
2013-01-09 16:02:00,47.5,27.2,29.51,West,278,2.0,3.0,45,0.00,,CLR,0.00,62.00,VWS V14.01,2013-01-09 22:02:00,
2013-01-09 16:05:00,47.3,27.6,29.51,NW,314,1.0,4.0,46,0.00,,CLR,0.00,47.00,VWS V14.01,2013-01-09 22:05:00,
2013-01-09 16:07:00,47.2,27.5,29.51,NW,306,1.0,4.0,46,0.00,,CLR,0.00,40.00,VWS V14.01,2013-01-09 22:07:00,
2013-01-09 16:08:00,47.1,27.4,29.51,NW,321,3.0,7.0,46,0.00,,CLR,0.00,40.00,VWS V14.01,2013-01-09 22:08:00,
2013-01-09 16:10:00,47.0,27.3,29.51,NW,322,1.0,3.0,46,0.00,,CLR,0.00,35.00,VWS V14.01,2013-01-09 22:10:00,
2013-01-09 16:13:00,46.9,27.2,29.51,NW,322,0.0,1.0,46,0.00,,CLR,0.00,32.00,VWS V14.01,2013-01-09 22:13:00,
2013-01-09 16:16:00,46.7,27.0,29.51,NW,318,1.0,2.0,46,0.00,,CLR,0.00,28.00,VWS V14.01,2013-01-09 22:16:00,
2013-01-09 16:18:00,46.5,26.9,29.51,NW,319,3.0,5.0,46,0.00,,CLR,0.00,25.00,VWS V14.01,2013-01-09 22:18:00,
2013-01-09 16:19:00,46.5,26.9,29.52,West,280,2.0,3.0,46,0.00,,CLR,0.00,23.00,VWS V14.01,2013-01-09 22:19:00,
2013-01-09 16:21:00,46.4,26.8,29.52,NW,317,0.0,3.0,46,0.00,,CLR,0.00,21.00,VWS V14.01,2013-01-09 22:21:00,
2013-01-09 16:22:00,46.3,27.2,29.52,NW,317,0.0,0.0,47,0.00,,CLR,0.00,21.00,VWS V14.01,2013-01-09 22:22:00,
2013-01-09 16:25:00,46.1,26.5,29.52,NW,317,0.0,3.0,46,0.00,,CLR,0.00,18.00,VWS V14.01,2013-01-09 22:25:00,
2013-01-09 16:28:00,45.9,26.8,29.51,NW,309,3.0,4.0,47,0.00,,CLR,0.00,16.00,VWS V14.01,2013-01-09 22:28:00,
2013-01-09 16:31:00,45.7,26.6,29.51,NW,309,0.0,2.0,47,0.00,,CLR,0.00,14.00,VWS V14.01,2013-01-09 22:31:00,
2013-01-09 16:32:00,45.6,26.5,29.51,NW,309,0.0,3.0,47,0.00,,CLR,0.00,12.00,VWS V14.01,2013-01-09 22:32:00,
2013-01-09 16:34:00,45.5,27.0,29.51,NW,309,1.0,1.0,48,0.00,,CLR,0.00,11.00,VWS V14.01,2013-01-09 22:34:00,
2013-01-09 16:37:00,45.3,26.8,29.52,NW,314,0.0,2.0,48,0.00,,CLR,0.00,9.00,VWS V14.01,2013-01-09 22:37:00,
2013-01-09 16:39:00,45.2,26.7,29.52,NW,313,0.0,4.0,48,0.00,,CLR,0.00,7.00,VWS V14.01,2013-01-09 22:39:00,
2013-01-09 16:41:00,45.1,26.6,29.52,NW,313,0.0,0.0,48,0.00,,CLR,0.00,5.00,VWS V14.01,2013-01-09 22:41:00,
2013-01-09 16:46:00,44.9,26.9,29.52,NW,314,0.0,0.0,49,0.00,,CLR,0.00,0.00,VWS V14.01,2013-01-09 22:46:00,
2013-01-09 16:47:00,44.8,26.8,29.52,NW,313,0.0,0.0,49,0.00,,CLR,0.00,0.00,VWS V14.01,2013-01-09 22:47:00,
2013-01-09 16:50:00,44.5,27.0,29.52,NW,313,0.0,0.0,50,0.00,,CLR,0.00,0.00,VWS V14.01,2013-01-09 22:50:00,
2013-01-09 16:52:00,44.3,26.9,29.52,NW,313,0.0,0.0,50,0.00,,CLR,0.00,0.00,VWS V14.01,2013-01-09 22:52:00,
2013-01-09 16:53:00,44.2,27.2,29.52,NW,314,0.0,0.0,51,0.00,,CLR,0.00,0.00,VWS V14.01,2013-01-09 22:53:00,
2013-01-09 16:55:00,43.9,27.0,29.52,NW,314,0.0,0.0,51,0.00,,CLR,0.00,0.00,VWS V14.01,2013-01-09 22:55:00,
2013-01-09 16:58:00,43.6,27.1,29.52,NW,313,0.0,0.0,52,0.00,,CLR,0.00,0.00,VWS V14.01,2013-01-09 22:58:00,
2013-01-09 16:59:00,43.5,27.1,29.53,NW,313,0.0,0.0,52,0.00,,CLR,0.00,0.00,VWS V14.01,2013-01-09 22:59:00,
2013-01-09 17:03:00,43.2,27.2,29.53,NW,313,0.0,0.0,53,0.00,,CLR,0.00,0.00,VWS V14.01,2013-01-09 23:03:00,
2013-01-09 17:04:00,43.2,27.2,29.53,NW,313,0.0,0.0,53,0.00,,CLR,0.00,0.00,VWS V14.01,2013-01-09 23:04:00,
2013-01-09 17:06:00,43.1,27.6,29.53,NW,313,0.0,0.0,54,0.00,,CLR,0.00,0.00,VWS V14.01,2013-01-09 23:06:00,
2013-01-09 17:07:00,43.0,27.5,29.53,NW,314,0.0,0.0,54,0.00,,CLR,0.00,0.00,VWS V14.01,2013-01-09 23:07:00,
2013-01-09 17:10:00,42.8,27.3,29.53,NW,313,0.0,0.0,54,0.00,,CLR,0.00,0.00,VWS V14.01,2013-01-09 23:10:00,
2013-01-09 17:11:00,42.7,27.2,29.53,NW,314,0.0,0.0,54,0.00,,CLR,0.00,0.00,VWS V14.01,2013-01-09 23:11:00,
2013-01-09 17:12:00,42.6,27.1,29.53,NW,313,0.0,0.0,54,0.00,,CLR,0.00,0.00,VWS V14.01,2013-01-09 23:12:00,
2013-01-09 17:14:00,42.3,27.3,29.53,NW,313,0.0,1.0,55,0.00,,CLR,0.00,0.00,VWS V14.01,2013-01-09 23:14:00,
2013-01-09 17:18:00,41.8,26.8,29.53,NW,313,0.0,0.0,55,0.00,,CLR,0.00,0.00,VWS V14.01,2013-01-09 23:18:00,
2013-01-09 17:19:00,41.7,27.2,29.53,NW,314,0.0,0.0,56,0.00,,CLR,0.00,0.00,VWS V14.01,2013-01-09 23:19:00,
2013-01-09 17:24:00,41.1,27.0,29.53,NW,314,0.0,0.0,57,0.00,,CLR,0.00,0.00,VWS V14.01,2013-01-09 23:24:00,
2013-01-09 17:25:00,41.1,27.0,29.53,NW,314,0.0,0.0,57,0.00,,CLR,0.00,0.00,VWS V14.01,2013-01-09 23:25:00,
2013-01-09 17:26:00,41.1,27.0,29.53,NW,313,0.0,0.0,57,0.00,,CLR,0.00,0.00,VWS V14.01,2013-01-09 23:26:00,
2013-01-09 17:29:00,40.8,27.2,29.53,NW,313,0.0,0.0,58,0.00,,CLR,0.00,0.00,VWS V14.01,2013-01-09 23:29:00,
2013-01-09 17:32:00,40.6,27.0,29.53,NW,313,0.0,0.0,58,0.00,,CLR,0.00,0.00,VWS V14.01,2013-01-09 23:32:00,
2013-01-09 17:35:00,40.5,27.3,29.53,NW,313,0.0,0.0,59,0.00,,CLR,0.00,0.00,VWS V14.01,2013-01-09 23:35:00,
2013-01-09 17:37:00,40.4,27.2,29.54,NW,313,0.0,0.0,59,0.00,,CLR,0.00,0.00,VWS V14.01,2013-01-09 23:37:00,
2013-01-09 17:39:00,40.3,27.1,29.54,NW,313,0.0,0.0,59,0.00,,CLR,0.00,0.00,VWS V14.01,2013-01-09 23:39:00,
2013-01-09 17:42:00,40.1,26.9,29.54,NW,313,0.0,0.0,59,0.00,,CLR,0.00,0.00,VWS V14.01,2013-01-09 23:42:00,
2013-01-09 17:43:00,40.1,26.9,29.54,NW,314,0.0,0.0,59,0.00,,CLR,0.00,0.00,VWS V14.01,2013-01-09 23:43:00,
2013-01-09 17:45:00,40.0,26.8,29.54,NW,313,0.0,0.0,59,0.00,,CLR,0.00,0.00,VWS V14.01,2013-01-09 23:45:00,
2013-01-09 17:46:00,39.9,27.2,29.54,NW,314,0.0,0.0,60,0.00,,CLR,0.00,0.00,VWS V14.01,2013-01-09 23:46:00,
2013-01-09 17:50:00,39.8,27.1,29.54,NW,313,0.0,0.0,60,0.00,,CLR,0.00,0.00,VWS V14.01,2013-01-09 23:50:00,
2013-01-09 17:51:00,39.8,27.1,29.54,NW,314,0.0,0.0,60,0.00,,CLR,0.00,0.00,VWS V14.01,2013-01-09 23:51:00,
2013-01-09 17:52:00,39.7,27.0,29.54,NW,313,0.0,0.0,60,0.00,,CLR,0.00,0.00,VWS V14.01,2013-01-09 23:52:00,
2013-01-09 17:55:00,39.6,27.3,29.55,NW,314,0.0,0.0,61,0.00,,CLR,0.00,0.00,VWS V14.01,2013-01-09 23:55:00,
2013-01-09 17:58:00,39.5,27.2,29.55,NW,313,0.0,0.0,61,0.00,,CLR,0.00,0.00,VWS V14.01,2013-01-09 23:58:00,
2013-01-09 17:59:00,39.5,27.2,29.55,NW,314,0.0,0.0,61,0.00,,CLR,0.00,0.00,VWS V14.01,2013-01-09 23:59:00,
2013-01-09 18:04:00,39.2,26.9,29.55,NW,314,0.0,0.0,61,0.00,,CLR,0.00,0.00,VWS V14.01,2013-01-10 00:04:00,
2013-01-09 18:06:00,39.1,26.8,29.55,NW,313,0.0,0.0,61,0.00,,CLR,0.00,0.00,VWS V14.01,2013-01-10 00:06:00,
2013-01-09 18:08:00,38.9,27.0,29.55,NW,313,0.0,0.0,62,0.00,,CLR,0.00,0.00,VWS V14.01,2013-01-10 00:08:00,
2013-01-09 18:09:00,38.8,26.9,29.55,NW,314,0.0,0.0,62,0.00,,CLR,0.00,0.00,VWS V14.01,2013-01-10 00:09:00,
2013-01-09 18:10:00,38.8,26.9,29.55,NW,314,0.0,0.0,62,0.00,,CLR,0.00,0.00,VWS V14.01,2013-01-10 00:10:00,
2013-01-09 18:11:00,38.7,26.8,29.55,NW,314,0.0,0.0,62,0.00,,CLR,0.00,0.00,VWS V14.01,2013-01-10 00:11:00,
2013-01-09 18:13:00,38.5,26.6,29.56,NW,314,0.0,0.0,62,0.00,,CLR,0.00,0.00,VWS V14.01,2013-01-10 00:13:00,
2013-01-09 18:15:00,38.3,26.8,29.56,NW,313,0.0,0.0,63,0.00,,CLR,0.00,0.00,VWS V14.01,2013-01-10 00:15:00,
2013-01-09 18:16:00,38.2,26.7,29.56,NW,314,0.0,0.0,63,0.00,,CLR,0.00,0.00,VWS V14.01,2013-01-10 00:16:00,
2013-01-09 18:18:00,38.0,26.5,29.56,NW,314,0.0,0.0,63,0.00,,CLR,0.00,0.00,VWS V14.01,2013-01-10 00:18:00,
2013-01-09 18:21:00,37.8,26.7,29.56,NW,313,0.0,0.0,64,0.00,,CLR,0.00,0.00,VWS V14.01,2013-01-10 00:21:00,
2013-01-09 18:23:00,37.7,26.6,29.56,NW,314,0.0,0.0,64,0.00,,CLR,0.00,0.00,VWS V14.01,2013-01-10 00:23:00,
2013-01-09 18:24:00,37.7,26.6,29.56,NW,314,0.0,0.0,64,0.00,,CLR,0.00,0.00,VWS V14.01,2013-01-10 00:24:00,
2013-01-09 18:28:00,37.5,26.8,29.56,NW,314,0.0,0.0,65,0.00,,CLR,0.00,0.00,VWS V14.01,2013-01-10 00:28:00,
2013-01-09 18:30:00,37.4,26.7,29.56,NW,313,0.0,0.0,65,0.00,,CLR,0.00,0.00,VWS V14.01,2013-01-10 00:30:00,
2013-01-09 18:31:00,37.4,26.7,29.56,NW,313,0.0,0.0,65,0.00,,CLR,0.00,0.00,VWS V14.01,2013-01-10 00:31:00,
2013-01-09 18:32:00,37.4,26.7,29.56,NW,313,0.0,0.0,65,0.00,,CLR,0.00,0.00,VWS V14.01,2013-01-10 00:32:00,
2013-01-09 18:35:00,37.2,26.5,29.56,NW,314,0.0,0.0,65,0.00,,CLR,0.00,0.00,VWS V14.01,2013-01-10 00:35:00,
2013-01-09 18:37:00,37.1,26.4,29.56,NW,314,0.0,0.0,65,0.00,,CLR,0.00,0.00,VWS V14.01,2013-01-10 00:37:00,
2013-01-09 18:40:00,37.0,26.7,29.56,NW,313,0.0,0.0,66,0.00,,CLR,0.00,0.00,VWS V14.01,2013-01-10 00:40:00,
2013-01-09 18:42:00,36.9,26.6,29.56,NW,314,0.0,0.0,66,0.00,,CLR,0.00,0.00,VWS V14.01,2013-01-10 00:42:00,
2013-01-09 18:43:00,36.8,26.5,29.56,NW,313,0.0,0.0,66,0.00,,CLR,0.00,0.00,VWS V14.01,2013-01-10 00:43:00,
2013-01-09 18:46:00,36.7,26.4,29.56,NW,314,0.0,0.0,66,0.00,,CLR,0.00,0.00,VWS V14.01,2013-01-10 00:46:00,
2013-01-09 18:49:00,36.5,26.2,29.56,NW,313,0.0,0.0,66,0.00,,CLR,0.00,0.00,VWS V14.01,2013-01-10 00:49:00,
2013-01-09 18:52:00,36.4,26.5,29.56,NW,314,0.0,0.0,67,0.00,,CLR,0.00,0.00,VWS V14.01,2013-01-10 00:52:00,
2013-01-09 18:57:00,36.2,26.3,29.57,NW,314,0.0,0.0,67,0.00,,CLR,0.00,0.00,VWS V14.01,2013-01-10 00:57:00,
2013-01-09 18:58:00,36.1,26.2,29.57,NW,313,0.0,0.0,67,0.00,,CLR,0.00,0.00,VWS V14.01,2013-01-10 00:58:00,
2013-01-09 18:59:00,36.1,26.2,29.57,NW,313,0.0,0.0,67,0.00,,CLR,0.00,0.00,VWS V14.01,2013-01-10 00:59:00,
2013-01-09 19:04:00,35.9,26.4,29.57,NW,314,0.0,0.0,68,0.00,,CLR,0.00,0.00,VWS V14.01,2013-01-10 01:04:00,
2013-01-09 19:05:00,35.9,26.4,29.57,NW,314,0.0,0.0,68,0.00,,CLR,0.00,0.00,VWS V14.01,2013-01-10 01:05:00,
2013-01-09 19:10:00,35.6,26.1,29.57,NW,314,0.0,0.0,68,0.00,,CLR,0.00,0.00,VWS V14.01,2013-01-10 01:10:00,
2013-01-09 19:13:00,35.5,26.0,29.57,NW,314,0.0,0.0,68,0.00,,CLR,0.00,0.00,VWS V14.01,2013-01-10 01:13:00,
2013-01-09 19:14:00,35.5,26.0,29.57,NW,313,0.0,0.0,68,0.00,,CLR,0.00,0.00,VWS V14.01,2013-01-10 01:14:00,
2013-01-09 19:19:00,35.3,26.2,29.57,NW,314,0.0,0.0,69,0.00,,CLR,0.00,0.00,VWS V14.01,2013-01-10 01:19:00,
2013-01-09 19:20:00,35.3,26.2,29.57,NW,314,0.0,0.0,69,0.00,,CLR,0.00,0.00,VWS V14.01,2013-01-10 01:20:00,
2013-01-09 19:21:00,35.2,26.1,29.57,NW,313,0.0,0.0,69,0.00,,CLR,0.00,0.00,VWS V14.01,2013-01-10 01:21:00,
2013-01-09 19:25:00,35.0,26.2,29.57,NW,314,0.0,0.0,70,0.00,,CLR,0.00,0.00,VWS V14.01,2013-01-10 01:25:00,
2013-01-09 19:26:00,35.0,26.2,29.57,NW,313,0.0,0.0,70,0.00,,CLR,0.00,0.00,VWS V14.01,2013-01-10 01:26:00,
2013-01-09 19:30:00,34.8,26.0,29.57,NW,314,0.0,0.0,70,0.00,,CLR,0.00,0.00,VWS V14.01,2013-01-10 01:30:00,
2013-01-09 19:31:00,34.8,26.0,29.57,NW,314,0.0,0.0,70,0.00,,CLR,0.00,0.00,VWS V14.01,2013-01-10 01:31:00,
2013-01-09 19:33:00,34.7,25.9,29.58,NW,314,0.0,0.0,70,0.00,,CLR,0.00,0.00,VWS V14.01,2013-01-10 01:33:00,
2013-01-09 19:35:00,34.7,25.9,29.58,NW,314,0.0,0.0,70,0.00,,CLR,0.00,0.00,VWS V14.01,2013-01-10 01:35:00,
2013-01-09 19:36:00,34.7,25.9,29.58,NW,314,0.0,0.0,70,0.00,,CLR,0.00,0.00,VWS V14.01,2013-01-10 01:36:00,
2013-01-09 19:40:00,34.5,25.7,29.58,NW,314,0.0,0.0,70,0.00,,CLR,0.00,0.00,VWS V14.01,2013-01-10 01:40:00,
2013-01-09 19:42:00,34.4,25.6,29.58,NW,313,0.0,0.0,70,0.00,,CLR,0.00,0.00,VWS V14.01,2013-01-10 01:42:00,
2013-01-09 19:44:00,34.4,25.6,29.58,NW,314,0.0,0.0,70,0.00,,CLR,0.00,0.00,VWS V14.01,2013-01-10 01:44:00,
2013-01-09 19:47:00,34.4,26.0,29.58,NW,314,0.0,0.0,71,0.00,,CLR,0.00,0.00,VWS V14.01,2013-01-10 01:47:00,
2013-01-09 19:48:00,34.4,26.0,29.58,NW,313,0.0,0.0,71,0.00,,CLR,0.00,0.00,VWS V14.01,2013-01-10 01:48:00,
2013-01-09 19:50:00,34.3,25.9,29.58,NW,314,0.0,0.0,71,0.00,,CLR,0.00,0.00,VWS V14.01,2013-01-10 01:50:00,
2013-01-09 19:53:00,34.2,25.8,29.58,NW,314,0.0,0.0,71,0.00,,CLR,0.00,0.00,VWS V14.01,2013-01-10 01:53:00,
2013-01-09 19:55:00,34.1,25.7,29.58,NW,314,0.0,0.0,71,0.00,,CLR,0.00,0.00,VWS V14.01,2013-01-10 01:55:00,
2013-01-09 19:58:00,33.9,25.8,29.57,NW,313,0.0,0.0,72,0.00,,CLR,0.00,0.00,VWS V14.01,2013-01-10 01:58:00,
2013-01-09 19:59:00,33.9,25.8,29.58,NW,314,0.0,0.0,72,0.00,,CLR,0.00,0.00,VWS V14.01,2013-01-10 01:59:00,
2013-01-09 20:01:00,33.8,25.7,29.58,NW,314,0.0,0.0,72,0.00,,CLR,0.00,0.00,VWS V14.01,2013-01-10 02:01:00,
2013-01-09 20:04:00,33.7,25.6,29.57,NW,314,0.0,0.0,72,0.00,,CLR,0.00,0.00,VWS V14.01,2013-01-10 02:04:00,
2013-01-09 20:05:00,33.6,25.5,29.57,NW,313,0.0,0.0,72,0.00,,CLR,0.00,0.00,VWS V14.01,2013-01-10 02:05:00,
2013-01-09 20:07:00,33.5,25.8,29.57,NW,313,0.0,0.0,73,0.00,,CLR,0.00,0.00,VWS V14.01,2013-01-10 02:07:00,
2013-01-09 20:11:00,33.3,25.6,29.57,NW,313,0.0,0.0,73,0.00,,CLR,0.00,0.00,VWS V14.01,2013-01-10 02:11:00,
2013-01-09 20:12:00,33.3,25.6,29.57,NW,313,0.0,0.0,73,0.00,,CLR,0.00,0.00,VWS V14.01,2013-01-10 02:12:00,
2013-01-09 20:16:00,33.2,25.5,29.57,NW,314,0.0,0.0,73,0.00,,CLR,0.00,0.00,VWS V14.01,2013-01-10 02:16:00,
2013-01-09 20:18:00,33.1,25.7,29.57,NW,313,0.0,0.0,74,0.00,,CLR,0.00,0.00,VWS V14.01,2013-01-10 02:18:00,
2013-01-09 20:19:00,33.0,25.6,29.57,NW,314,0.0,0.0,74,0.00,,CLR,0.00,0.00,VWS V14.01,2013-01-10 02:19:00,
2013-01-09 20:23:00,32.9,25.5,29.56,NW,314,0.0,0.0,74,0.00,,CLR,0.00,0.00,VWS V14.01,2013-01-10 02:23:00,
2013-01-09 20:24:00,32.8,25.4,29.56,NW,313,0.0,0.0,74,0.00,,CLR,0.00,0.00,VWS V14.01,2013-01-10 02:24:00,
2013-01-09 20:25:00,32.8,25.4,29.56,NW,314,0.0,0.0,74,0.00,,CLR,0.00,0.00,VWS V14.01,2013-01-10 02:25:00,
2013-01-09 20:30:00,32.5,25.1,29.57,NW,314,0.0,0.0,74,0.00,,CLR,0.00,0.00,VWS V14.01,2013-01-10 02:30:00,
2013-01-09 20:31:00,32.4,25.0,29.56,NW,314,0.0,0.0,74,0.00,,CLR,0.00,0.00,VWS V14.01,2013-01-10 02:31:00,
2013-01-09 20:32:00,32.4,25.0,29.57,NW,313,0.0,0.0,74,0.00,,CLR,0.00,0.00,VWS V14.01,2013-01-10 02:32:00,
2013-01-09 20:36:00,32.2,25.2,29.56,NW,314,0.0,0.0,75,0.00,,CLR,0.00,0.00,VWS V14.01,2013-01-10 02:36:00,
2013-01-09 20:37:00,32.2,25.2,29.56,NW,314,0.0,0.0,75,0.00,,CLR,0.00,0.00,VWS V14.01,2013-01-10 02:37:00,
2013-01-09 20:38:00,32.2,25.2,29.56,NW,313,0.0,0.0,75,0.00,,CLR,0.00,0.00,VWS V14.01,2013-01-10 02:38:00,
2013-01-09 20:43:00,32.1,25.1,29.56,NW,314,0.0,0.0,75,0.00,,CLR,0.00,0.00,VWS V14.01,2013-01-10 02:43:00,
2013-01-09 20:44:00,32.0,25.0,29.56,NW,313,0.0,0.0,75,0.00,,CLR,0.00,0.00,VWS V14.01,2013-01-10 02:44:00,
2013-01-09 20:48:00,32.0,25.0,29.56,NW,314,0.0,0.0,75,0.00,,CLR,0.00,0.00,VWS V14.01,2013-01-10 02:48:00,
2013-01-09 20:52:00,31.9,25.2,29.56,NW,314,0.0,0.0,76,0.00,,CLR,0.00,0.00,VWS V14.01,2013-01-10 02:52:00,
2013-01-09 20:53:00,31.9,25.2,29.56,NW,313,0.0,0.0,76,0.00,,CLR,0.00,0.00,VWS V14.01,2013-01-10 02:53:00,
2013-01-09 20:54:00,31.9,25.2,29.56,NW,313,0.0,0.0,76,0.00,,CLR,0.00,0.00,VWS V14.01,2013-01-10 02:54:00,
2013-01-09 20:56:00,31.9,25.2,29.56,NW,314,0.0,0.0,76,0.00,,CLR,0.00,0.00,VWS V14.01,2013-01-10 02:56:00,
2013-01-09 20:59:00,31.8,25.1,29.56,NW,314,0.0,0.0,76,0.00,,CLR,0.00,0.00,VWS V14.01,2013-01-10 02:59:00,
2013-01-09 21:00:00,31.8,25.1,29.56,NW,313,0.0,0.0,76,0.00,,CLR,0.00,0.00,VWS V14.01,2013-01-10 03:00:00,
2013-01-09 21:03:00,31.8,25.1,29.56,NW,314,0.0,0.0,76,0.00,,CLR,0.00,0.00,VWS V14.01,2013-01-10 03:03:00,
2013-01-09 21:04:00,31.7,25.0,29.56,NW,313,0.0,0.0,76,0.00,,CLR,0.00,0.00,VWS V14.01,2013-01-10 03:04:00,
2013-01-09 21:09:00,31.7,25.0,29.56,NW,313,0.0,0.0,76,0.00,,CLR,0.00,0.00,VWS V14.01,2013-01-10 03:09:00,
2013-01-09 21:10:00,31.7,25.0,29.56,NW,314,0.0,0.0,76,0.00,,CLR,0.00,0.00,VWS V14.01,2013-01-10 03:10:00,
2013-01-09 21:12:00,31.7,25.0,29.56,NW,313,0.0,0.0,76,0.00,,CLR,0.00,0.00,VWS V14.01,2013-01-10 03:12:00,
2013-01-09 21:14:00,31.7,25.0,29.56,NW,314,0.0,0.0,76,0.00,,CLR,0.00,0.00,VWS V14.01,2013-01-10 03:14:00,
2013-01-09 21:18:00,31.7,24.7,29.56,NW,313,0.0,0.0,75,0.00,,CLR,0.00,0.00,VWS V14.01,2013-01-10 03:18:00,
2013-01-09 21:19:00,31.7,24.7,29.56,NW,313,0.0,0.0,75,0.00,,CLR,0.00,0.00,VWS V14.01,2013-01-10 03:19:00,
2013-01-09 21:21:00,31.7,24.7,29.57,NW,313,0.0,0.0,75,0.00,,CLR,0.00,0.00,VWS V14.01,2013-01-10 03:21:00,
2013-01-09 21:25:00,31.8,24.8,29.57,NW,313,0.0,0.0,75,0.00,,CLR,0.00,0.00,VWS V14.01,2013-01-10 03:25:00,
2013-01-09 21:26:00,31.8,24.8,29.57,NW,314,0.0,0.0,75,0.00,,CLR,0.00,0.00,VWS V14.01,2013-01-10 03:26:00,
2013-01-09 21:31:00,31.8,24.8,29.57,NW,314,0.0,0.0,75,0.00,,CLR,0.00,0.00,VWS V14.01,2013-01-10 03:31:00,
2013-01-09 21:32:00,31.8,24.8,29.57,NW,314,0.0,0.0,75,0.00,,CLR,0.00,0.00,VWS V14.01,2013-01-10 03:32:00,
2013-01-09 21:33:00,31.8,24.8,29.57,NW,313,0.0,0.0,75,0.00,,CLR,0.00,0.00,VWS V14.01,2013-01-10 03:33:00,
2013-01-09 21:34:00,31.7,24.7,29.57,NW,314,0.0,0.0,75,0.00,,CLR,0.00,0.00,VWS V14.01,2013-01-10 03:34:00,
2013-01-09 21:39:00,31.6,24.6,29.57,NW,313,0.0,0.0,75,0.00,,CLR,0.00,0.00,VWS V14.01,2013-01-10 03:39:00,
2013-01-09 21:40:00,31.6,24.6,29.57,NW,314,0.0,0.0,75,0.00,,CLR,0.00,0.00,VWS V14.01,2013-01-10 03:40:00,
2013-01-09 21:42:00,31.5,24.5,29.58,NW,314,0.0,0.0,75,0.00,,CLR,0.00,0.00,VWS V14.01,2013-01-10 03:42:00,
2013-01-09 21:45:00,31.4,24.4,29.58,NW,313,0.0,0.0,75,0.00,,CLR,0.00,0.00,VWS V14.01,2013-01-10 03:45:00,
2013-01-09 21:47:00,31.3,24.3,29.58,NW,314,0.0,0.0,75,0.00,,CLR,0.00,0.00,VWS V14.01,2013-01-10 03:47:00,
2013-01-09 21:50:00,31.2,24.2,29.58,NW,314,0.0,0.0,75,0.00,,CLR,0.00,0.00,VWS V14.01,2013-01-10 03:50:00,
2013-01-09 21:52:00,31.2,24.2,29.58,NW,314,0.0,0.0,75,0.00,,CLR,0.00,0.00,VWS V14.01,2013-01-10 03:52:00,
2013-01-09 21:53:00,31.1,24.1,29.58,NW,314,0.0,0.0,75,0.00,,CLR,0.00,0.00,VWS V14.01,2013-01-10 03:53:00,
2013-01-09 21:54:00,31.1,24.1,29.58,NW,313,0.0,0.0,75,0.00,,CLR,0.00,0.00,VWS V14.01,2013-01-10 03:54:00,
2013-01-09 21:59:00,30.9,23.9,29.58,NW,314,0.0,0.0,75,0.00,,CLR,0.00,0.00,VWS V14.01,2013-01-10 03:59:00,
2013-01-09 22:02:00,30.9,24.2,29.58,NW,313,0.0,0.0,76,0.00,,CLR,0.00,0.00,VWS V14.01,2013-01-10 04:02:00,
2013-01-09 22:07:00,30.7,24.0,29.58,NW,314,0.0,0.0,76,0.00,,CLR,0.00,0.00,VWS V14.01,2013-01-10 04:07:00,
2013-01-09 22:08:00,30.7,24.0,29.58,NW,314,0.0,0.0,76,0.00,,CLR,0.00,0.00,VWS V14.01,2013-01-10 04:08:00,
2013-01-09 22:09:00,30.7,24.0,29.58,NW,313,0.0,0.0,76,0.00,,CLR,0.00,0.00,VWS V14.01,2013-01-10 04:09:00,
2013-01-09 22:12:00,30.6,24.0,29.59,NW,313,0.0,0.0,76,0.00,,CLR,0.00,0.00,VWS V14.01,2013-01-10 04:12:00,
2013-01-09 22:14:00,30.6,24.0,29.59,NW,313,0.0,0.0,76,0.00,,CLR,0.00,0.00,VWS V14.01,2013-01-10 04:14:00,
2013-01-09 22:15:00,30.6,24.0,29.59,NW,314,0.0,0.0,76,0.00,,CLR,0.00,0.00,VWS V14.01,2013-01-10 04:15:00,
2013-01-09 22:16:00,30.6,24.0,29.59,NW,313,0.0,0.0,76,0.00,,CLR,0.00,0.00,VWS V14.01,2013-01-10 04:16:00,
2013-01-09 22:17:00,30.5,23.9,29.59,NW,313,0.0,0.0,76,0.00,,CLR,0.00,0.00,VWS V14.01,2013-01-10 04:17:00,
2013-01-09 22:19:00,30.5,23.9,29.59,NW,314,0.0,0.0,76,0.00,,CLR,0.00,0.00,VWS V14.01,2013-01-10 04:19:00,
2013-01-09 22:20:00,30.5,23.9,29.59,NW,313,0.0,0.0,76,0.00,,CLR,0.00,0.00,VWS V14.01,2013-01-10 04:20:00,
2013-01-09 22:25:00,30.4,23.8,29.59,NW,313,0.0,0.0,76,0.00,,CLR,0.00,0.00,VWS V14.01,2013-01-10 04:25:00,
2013-01-09 22:29:00,30.3,23.7,29.59,NW,314,0.0,0.0,76,0.00,,CLR,0.00,0.00,VWS V14.01,2013-01-10 04:29:00,
2013-01-09 22:31:00,30.2,23.9,29.59,NW,314,0.0,0.0,77,0.00,,CLR,0.00,0.00,VWS V14.01,2013-01-10 04:31:00,
2013-01-09 22:32:00,30.1,23.8,29.59,NW,314,0.0,0.0,77,0.00,,CLR,0.00,0.00,VWS V14.01,2013-01-10 04:32:00,
2013-01-09 22:33:00,30.1,23.8,29.59,NW,314,0.0,0.0,77,0.00,,CLR,0.00,0.00,VWS V14.01,2013-01-10 04:33:00,
2013-01-09 22:38:00,30.0,23.7,29.59,NW,313,0.0,0.0,77,0.00,,CLR,0.00,0.00,VWS V14.01,2013-01-10 04:38:00,
2013-01-09 22:41:00,29.9,23.6,29.59,NW,313,0.0,0.0,77,0.00,,CLR,0.00,0.00,VWS V14.01,2013-01-10 04:41:00,
2013-01-09 22:43:00,29.9,23.6,29.59,NW,314,0.0,0.0,77,0.00,,CLR,0.00,0.00,VWS V14.01,2013-01-10 04:43:00,
2013-01-09 22:44:00,29.9,23.6,29.59,NW,314,0.0,0.0,77,0.00,,CLR,0.00,0.00,VWS V14.01,2013-01-10 04:44:00,
2013-01-09 22:49:00,29.8,23.5,29.59,NW,314,0.0,0.0,77,0.00,,CLR,0.00,0.00,VWS V14.01,2013-01-10 04:49:00,
2013-01-09 22:51:00,29.7,23.4,29.59,NW,313,0.0,0.0,77,0.00,,CLR,0.00,0.00,VWS V14.01,2013-01-10 04:51:00,
2013-01-09 22:54:00,29.7,23.4,29.59,NW,314,0.0,0.0,77,0.00,,CLR,0.00,0.00,VWS V14.01,2013-01-10 04:54:00,
2013-01-09 22:57:00,29.6,23.3,29.59,NW,313,0.0,0.0,77,0.00,,CLR,0.00,0.00,VWS V14.01,2013-01-10 04:57:00,
2013-01-09 22:58:00,29.5,23.2,29.59,NW,313,0.0,0.0,77,0.00,,CLR,0.00,0.00,VWS V14.01,2013-01-10 04:58:00,
2013-01-09 22:59:00,29.5,23.2,29.59,NW,314,0.0,0.0,77,0.00,,CLR,0.00,0.00,VWS V14.01,2013-01-10 04:59:00,
2013-01-09 23:00:00,29.5,23.2,29.59,NW,314,0.0,0.0,77,0.00,,CLR,0.00,0.00,VWS V14.01,2013-01-10 05:00:00,
2013-01-09 23:01:00,29.5,23.2,29.59,NW,313,0.0,0.0,77,0.00,,CLR,0.00,0.00,VWS V14.01,2013-01-10 05:01:00,
2013-01-09 23:03:00,29.4,23.4,29.59,NW,314,0.0,0.0,78,0.00,,CLR,0.00,0.00,VWS V14.01,2013-01-10 05:03:00,
2013-01-09 23:06:00,29.4,23.4,29.59,NW,313,0.0,0.0,78,0.00,,CLR,0.00,0.00,VWS V14.01,2013-01-10 05:06:00,
2013-01-09 23:07:00,29.4,23.4,29.59,NW,313,0.0,0.0,78,0.00,,CLR,0.00,0.00,VWS V14.01,2013-01-10 05:07:00,
2013-01-09 23:09:00,29.3,23.3,29.59,NW,314,0.0,0.0,78,0.00,,CLR,0.00,0.00,VWS V14.01,2013-01-10 05:09:00,
2013-01-09 23:11:00,29.3,23.3,29.59,NW,314,0.0,0.0,78,0.00,,CLR,0.00,0.00,VWS V14.01,2013-01-10 05:11:00,
2013-01-09 23:15:00,29.2,23.2,29.60,NW,314,0.0,0.0,78,0.00,,CLR,0.00,0.00,VWS V14.01,2013-01-10 05:15:00,
2013-01-09 23:17:00,29.2,23.2,29.60,NW,314,0.0,0.0,78,0.00,,CLR,0.00,0.00,VWS V14.01,2013-01-10 05:17:00,
2013-01-09 23:20:00,29.2,23.2,29.59,NW,314,0.0,0.0,78,0.00,,CLR,0.00,0.00,VWS V14.01,2013-01-10 05:20:00,
2013-01-09 23:22:00,29.1,23.4,29.60,NW,314,0.0,0.0,79,0.00,,CLR,0.00,0.00,VWS V14.01,2013-01-10 05:22:00,
2013-01-09 23:23:00,29.1,23.4,29.60,NW,314,0.0,0.0,79,0.00,,CLR,0.00,0.00,VWS V14.01,2013-01-10 05:23:00,
2013-01-09 23:24:00,29.1,23.4,29.60,NW,314,0.0,0.0,79,0.00,,CLR,0.00,0.00,VWS V14.01,2013-01-10 05:24:00,
2013-01-09 23:25:00,29.1,23.4,29.60,NW,314,0.0,0.0,79,0.00,,CLR,0.00,0.00,VWS V14.01,2013-01-10 05:25:00,
2013-01-09 23:29:00,29.0,23.3,29.59,NW,314,0.0,0.0,79,0.00,,CLR,0.00,0.00,VWS V14.01,2013-01-10 05:29:00,
2013-01-09 23:31:00,29.0,23.3,29.59,NW,314,0.0,0.0,79,0.00,,CLR,0.00,0.00,VWS V14.01,2013-01-10 05:31:00,
2013-01-09 23:34:00,28.9,23.2,29.59,NW,314,0.0,0.0,79,0.00,,CLR,0.00,0.00,VWS V14.01,2013-01-10 05:34:00,
2013-01-09 23:36:00,28.9,23.2,29.59,NW,313,0.0,0.0,79,0.00,,CLR,0.00,0.00,VWS V14.01,2013-01-10 05:36:00,
2013-01-09 23:39:00,28.8,23.1,29.59,NW,313,0.0,0.0,79,0.00,,CLR,0.00,0.00,VWS V14.01,2013-01-10 05:39:00,
2013-01-09 23:41:00,28.8,23.1,29.59,NW,314,0.0,0.0,79,0.00,,CLR,0.00,0.00,VWS V14.01,2013-01-10 05:41:00,
2013-01-09 23:42:00,28.8,23.1,29.58,NW,313,0.0,0.0,79,0.00,,CLR,0.00,0.00,VWS V14.01,2013-01-10 05:42:00,
2013-01-09 23:44:00,28.8,23.1,29.58,NW,314,0.0,0.0,79,0.00,,CLR,0.00,0.00,VWS V14.01,2013-01-10 05:44:00,
2013-01-09 23:45:00,28.8,23.1,29.58,NW,314,0.0,0.0,79,0.00,,CLR,0.00,0.00,VWS V14.01,2013-01-10 05:45:00,
2013-01-09 23:47:00,28.8,23.1,29.58,NW,314,0.0,0.0,79,0.00,,CLR,0.00,0.00,VWS V14.01,2013-01-10 05:47:00,
2013-01-09 23:52:00,28.7,23.0,29.59,NW,314,0.0,0.0,79,0.00,,CLR,0.00,0.00,VWS V14.01,2013-01-10 05:52:00,
2013-01-09 23:53:00,28.7,23.0,29.59,NW,314,0.0,0.0,79,0.00,,CLR,0.00,0.00,VWS V14.01,2013-01-10 05:53:00,
2013-01-09 23:55:00,28.7,23.0,29.58,NW,313,0.0,0.0,79,0.00,,CLR,0.00,0.00,VWS V14.01,2013-01-10 05:55:00,
2013-01-09 23:58:00,28.6,22.9,29.58,NW,313,0.0,0.0,79,0.00,,CLR,0.00,0.00,VWS V14.01,2013-01-10 05:58:00,
2013-01-09 23:59:00,28.6,22.9,29.58,NW,314,0.0,0.0,79,0.00,,CLR,0.00,0.00,VWS V14.01,2013-01-10 05:59:00,